Darstellungsparameter: Aktuell verwendete Einstellungen:
Skalierung der Graphiken ... ?
xyx+y,   Skalierungsfaktor:      Skalierung: Modus: x, Faktor: 1
Darstellungszeitraum ... ?
Vom - - bis: - -   Zeitraum: 19.01.2019 - 25.01.2019
Min/Max/Avg-Anzeige ... ?
Zeige MMA aktuell
Zeige MMA Monat
Zeige MMA alles
Zeige --A aktuell
Zeige --A Monat
Zeige --A alles
Keine MMA-Anzeige
MMA:
Minimum Maximum Average (ber die Originaldaten)
MMA-Basis: 19.01.2019 - 25.01.2019
Quicknavigation für Darstellung... ?
Tage:      1T, 2T, 3T, 5T -1T -2T -3T -5T +1T +2T +3T +5T
Wochen: 1W, 2W, 3W -1W -2W -3W +1W +2W +3W
Monate: 1M, 3M, 6M -1M -3M -6M +1M +3M +6M
Jahre:    1J, 3J, 5J, 10J -1J -3J -5J -10J +1J +3J +5J +10J
Nutze für die Darstellung ... ?
Originaldaten oder Mittelwerte auf ...
Stundenbasis Tagesbasis Wochenbasis
Monatsbasis Jahresbasis      Datenbasis: Original-Daten
Darstellen als:
Statistik (Auto) Statistik J:M      Darstellung:
Zur Graphik,    zurück zur Übersicht aller Sensoren.
 
Tabellarische Datenbersicht: ?
 
Sensor: Nr:Datum:Temp:Feuchte:Taupunkt:
Aussen-T/F 1 19-01-2019 00:00:00 -1.7 C 93 % -2.68 C
2 19-01-2019 00:05:00 -1.8 C 93 % -2.78 C
3 19-01-2019 00:10:00 -1.8 C 93 % -2.78 C
4 19-01-2019 00:15:00 -1.8 C 93 % -2.78 C
5 19-01-2019 00:20:00 -1.9 C 93 % -2.88 C
6 19-01-2019 00:25:00 -2 C 93 % -2.98 C
7 19-01-2019 00:30:00 -2.1 C 93 % -3.08 C
8 19-01-2019 00:35:00 -2.1 C 93 % -3.08 C
9 19-01-2019 00:40:00 -2.2 C 93 % -3.18 C
10 19-01-2019 00:45:00 -2.2 C 93 % -3.18 C
11 19-01-2019 00:50:00 -2.2 C 93 % -3.18 C
12 19-01-2019 00:55:00 -2.3 C 94 % -3.13 C
13 19-01-2019 01:00:00 -2.3 C 94 % -3.13 C
14 19-01-2019 01:05:00 -2.4 C 93 % -3.37 C
15 19-01-2019 01:10:00 -2.4 C 93 % -3.37 C
16 19-01-2019 01:15:00 -2.5 C 94 % -3.33 C
17 19-01-2019 01:20:00 -2.6 C 94 % -3.43 C
18 19-01-2019 01:25:00 -2.6 C 94 % -3.43 C
19 19-01-2019 01:30:00 -2.6 C 94 % -3.43 C
20 19-01-2019 01:35:00 -2.7 C 94 % -3.53 C
21 19-01-2019 01:40:00 -2.7 C 94 % -3.53 C
22 19-01-2019 01:45:00 -2.7 C 94 % -3.53 C
23 19-01-2019 01:50:00 -2.7 C 94 % -3.53 C
24 19-01-2019 01:55:00 -2.8 C 94 % -3.63 C
25 19-01-2019 02:00:00 -2.8 C 94 % -3.63 C
Sensor: Nr:Datum:Temp:Feuchte:Taupunkt:
Aussen-T/F 26 19-01-2019 02:05:00 -2.8 C 94 % -3.63 C
27 19-01-2019 02:10:00 -2.8 C 94 % -3.63 C
28 19-01-2019 02:15:00 -2.8 C 94 % -3.63 C
29 19-01-2019 02:20:00 -2.9 C 94 % -3.73 C
30 19-01-2019 02:25:00 -2.9 C 94 % -3.73 C
31 19-01-2019 02:30:00 -2.9 C 94 % -3.73 C
32 19-01-2019 02:35:00 -3 C 94 % -3.83 C
33 19-01-2019 02:40:00 -3 C 94 % -3.83 C
34 19-01-2019 02:45:00 -3 C 94 % -3.83 C
35 19-01-2019 02:50:00 -2.9 C 94 % -3.73 C
36 19-01-2019 02:55:00 -3 C 94 % -3.83 C
37 19-01-2019 03:00:00 -3.1 C 94 % -3.93 C
38 19-01-2019 03:05:00 -3.2 C 94 % -4.03 C
39 19-01-2019 03:10:00 -3.2 C 94 % -4.03 C
40 19-01-2019 03:15:00 -3.2 C 95 % -3.88 C
41 19-01-2019 03:20:00 -3.2 C 95 % -3.88 C
42 19-01-2019 03:25:00 -3.2 C 95 % -3.88 C
43 19-01-2019 03:30:00 -3.2 C 95 % -3.88 C
44 19-01-2019 03:35:00 -3.2 C 95 % -3.88 C
45 19-01-2019 03:40:00 -3.2 C 95 % -3.88 C
46 19-01-2019 03:45:00 -3.3 C 94 % -4.13 C
47 19-01-2019 03:50:00 -3.4 C 95 % -4.08 C
48 19-01-2019 03:55:00 -3.4 C 95 % -4.08 C
49 19-01-2019 04:00:00 -3.4 C 95 % -4.08 C
50 19-01-2019 04:05:00 -3.5 C 95 % -4.18 C
Sensor: Nr:Datum:Temp:Feuchte:Taupunkt:
Aussen-T/F 51 19-01-2019 04:10:00 -3.6 C 95 % -4.28 C
52 19-01-2019 04:15:00 -3.6 C 94 % -4.42 C
53 19-01-2019 04:20:00 -3.6 C 95 % -4.28 C
54 19-01-2019 04:25:00 -3.6 C 95 % -4.28 C
55 19-01-2019 04:30:00 -3.6 C 95 % -4.28 C
56 19-01-2019 04:35:00 -3.6 C 95 % -4.28 C
57 19-01-2019 04:40:00 -3.6 C 95 % -4.28 C
58 19-01-2019 04:45:00 -3.6 C 95 % -4.28 C
59 19-01-2019 04:50:00 -3.6 C 95 % -4.28 C
60 19-01-2019 04:55:00 -3.6 C 95 % -4.28 C
61 19-01-2019 05:00:00 -3.6 C 95 % -4.28 C
62 19-01-2019 05:05:00 -3.7 C 95 % -4.38 C
63 19-01-2019 05:10:00 -3.7 C 95 % -4.38 C
64 19-01-2019 05:15:00 -3.8 C 95 % -4.48 C
65 19-01-2019 05:20:00 -3.8 C 95 % -4.48 C
66 19-01-2019 05:25:00 -3.9 C 95 % -4.58 C
67 19-01-2019 05:30:00 -3.9 C 95 % -4.58 C
68 19-01-2019 05:35:00 -4 C 95 % -4.68 C
69 19-01-2019 05:40:00 -4.1 C 95 % -4.78 C
70 19-01-2019 05:45:00 -4 C 95 % -4.68 C
71 19-01-2019 05:50:00 -3.9 C 95 % -4.58 C
72 19-01-2019 05:55:00 -3.8 C 95 % -4.48 C
73 19-01-2019 06:00:00 -3.7 C 95 % -4.38 C
74 19-01-2019 06:05:00 -3.7 C 95 % -4.38 C
75 19-01-2019 06:10:00 -3.7 C 95 % -4.38 C
Sensor: Nr:Datum:Temp:Feuchte:Taupunkt:
Aussen-T/F 76 19-01-2019 06:15:00 -3.8 C 95 % -4.48 C
77 19-01-2019 06:20:00 -3.9 C 95 % -4.58 C
78 19-01-2019 06:25:00 -4.1 C 95 % -4.78 C
79 19-01-2019 06:30:00 -4.2 C 95 % -4.88 C
80 19-01-2019 06:35:00 -4.3 C 95 % -4.98 C
81 19-01-2019 06:40:00 -4.3 C 95 % -4.98 C
82 19-01-2019 06:45:00 -4.4 C 95 % -5.08 C
83 19-01-2019 06:50:00 -4.3 C 95 % -4.98 C
84 19-01-2019 06:55:00 -4.3 C 95 % -4.98 C
85 19-01-2019 07:00:00 -4.3 C 95 % -4.98 C
86 19-01-2019 07:05:00 -4.4 C 95 % -5.08 C
87 19-01-2019 07:10:00 -4.4 C 95 % -5.08 C
88 19-01-2019 07:15:00 -4.4 C 95 % -5.08 C
89 19-01-2019 07:20:00 -4.4 C 95 % -5.08 C
90 19-01-2019 07:25:00 -4.4 C 95 % -5.08 C
91 19-01-2019 07:30:00 -4.6 C 95 % -5.28 C
92 19-01-2019 07:35:00 -4.6 C 95 % -5.28 C
93 19-01-2019 07:40:00 -4.6 C 95 % -5.28 C
94 19-01-2019 07:45:00 -4.6 C 95 % -5.28 C
95 19-01-2019 07:50:00 -4.7 C 95 % -5.38 C
96 19-01-2019 07:55:00 -4.7 C 95 % -5.38 C
97 19-01-2019 08:00:00 -4.7 C 95 % -5.38 C
98 19-01-2019 08:05:00 -4.7 C 95 % -5.38 C
99 19-01-2019 08:10:00 -4.8 C 95 % -5.48 C
100 19-01-2019 08:15:00 -4.8 C 95 % -5.48 C
Sensor: Nr:Datum:Temp:Feuchte:Taupunkt:
Aussen-T/F 101 19-01-2019 08:20:00 -4.8 C 95 % -5.48 C
102 19-01-2019 08:25:00 -4.8 C 95 % -5.48 C
103 19-01-2019 08:30:00 -4.8 C 95 % -5.48 C
104 19-01-2019 08:35:00 -4.8 C 95 % -5.48 C
105 19-01-2019 08:40:00 -4.8 C 95 % -5.48 C
106 19-01-2019 08:45:00 -4.8 C 95 % -5.48 C
107 19-01-2019 08:50:00 -4.8 C 95 % -5.48 C
108 19-01-2019 08:55:00 -4.8 C 95 % -5.48 C
109 19-01-2019 09:00:00 -4.7 C 95 % -5.38 C
110 19-01-2019 09:05:00 -4.7 C 95 % -5.38 C
111 19-01-2019 09:10:00 -4.7 C 95 % -5.38 C
112 19-01-2019 09:15:00 -4.7 C 95 % -5.38 C
113 19-01-2019 09:20:00 -4.6 C 95 % -5.28 C
114 19-01-2019 09:25:00 -4.6 C 95 % -5.28 C
115 19-01-2019 09:30:00 -4.6 C 95 % -5.28 C
116 19-01-2019 09:35:00 -4.5 C 95 % -5.18 C
117 19-01-2019 09:40:00 -4.5 C 95 % -5.18 C
118 19-01-2019 09:45:00 -4.5 C 95 % -5.18 C
119 19-01-2019 09:50:00 -4.5 C 95 % -5.18 C
120 19-01-2019 09:55:00 -4.4 C 95 % -5.08 C
121 19-01-2019 10:00:00 -4.4 C 95 % -5.08 C
122 19-01-2019 10:05:00 -4.3 C 95 % -4.98 C
123 19-01-2019 10:10:00 -4.3 C 95 % -4.98 C
124 19-01-2019 10:15:00 -4.2 C 95 % -4.88 C
125 19-01-2019 10:20:00 -4.1 C 96 % -4.64 C
Sensor: Nr:Datum:Temp:Feuchte:Taupunkt:
Aussen-T/F 126 19-01-2019 10:25:00 -4 C 95 % -4.68 C
127 19-01-2019 10:30:00 -3.9 C 96 % -4.44 C
128 19-01-2019 10:35:00 -3.7 C 96 % -4.24 C
129 19-01-2019 10:40:00 -3.6 C 96 % -4.14 C
130 19-01-2019 10:45:00 -3.4 C 96 % -3.94 C
131 19-01-2019 10:50:00 -3.3 C 96 % -3.84 C
132 19-01-2019 10:55:00 -3.2 C 96 % -3.75 C
133 19-01-2019 11:00:00 -3.1 C 96 % -3.65 C
134 19-01-2019 11:05:00 -2.9 C 96 % -3.45 C
135 19-01-2019 11:10:00 -2.9 C 96 % -3.45 C
136 19-01-2019 11:15:00 -2.8 C 96 % -3.35 C
137 19-01-2019 11:20:00 -2.8 C 96 % -3.35 C
138 19-01-2019 11:25:00 -2.8 C 96 % -3.35 C
139 19-01-2019 11:30:00 -2.7 C 96 % -3.25 C
140 19-01-2019 11:35:00 -2.7 C 96 % -3.25 C
141 19-01-2019 11:40:00 -2.7 C 96 % -3.25 C
142 19-01-2019 11:45:00 -2.6 C 96 % -3.15 C
143 19-01-2019 11:50:00 -2.6 C 96 % -3.15 C
144 19-01-2019 11:55:00 -2.6 C 96 % -3.15 C
145 19-01-2019 12:00:00 -2.5 C 96 % -3.05 C
146 19-01-2019 12:05:00 -2.4 C 96 % -2.95 C
147 19-01-2019 12:10:00 -2.4 C 96 % -2.95 C
148 19-01-2019 12:15:00 -2.4 C 96 % -2.95 C
149 19-01-2019 12:20:00 -2.3 C 96 % -2.85 C
150 19-01-2019 12:25:00 -2.3 C 96 % -2.85 C
Sensor: Nr:Datum:Temp:Feuchte:Taupunkt:
Aussen-T/F 151 19-01-2019 12:30:00 -2.2 C 96 % -2.75 C
152 19-01-2019 12:35:00 -2.2 C 96 % -2.75 C
153 19-01-2019 12:40:00 -2.2 C 96 % -2.75 C
154 19-01-2019 12:45:00 -2.1 C 96 % -2.65 C
155 19-01-2019 12:50:00 -1.9 C 96 % -2.45 C
156 19-01-2019 12:55:00 -1.9 C 96 % -2.45 C
157 19-01-2019 13:00:00 -1.8 C 96 % -2.35 C
158 19-01-2019 13:05:00 -1.7 C 96 % -2.25 C
159 19-01-2019 13:10:00 -1.7 C 96 % -2.25 C
160 19-01-2019 13:15:00 -1.6 C 96 % -2.15 C
161 19-01-2019 13:20:00 -1.5 C 96 % -2.05 C
162 19-01-2019 13:25:00 -1.4 C 96 % -1.95 C
163 19-01-2019 13:30:00 -1.3 C 96 % -1.85 C
164 19-01-2019 13:35:00 -1.3 C 96 % -1.85 C
165 19-01-2019 13:40:00 -1.2 C 96 % -1.75 C
166 19-01-2019 13:45:00 -1.1 C 96 % -1.66 C
167 19-01-2019 13:50:00 -0.9 C 96 % -1.46 C
168 19-01-2019 13:55:00 -0.8 C 96 % -1.36 C
169 19-01-2019 14:00:00 -0.7 C 96 % -1.26 C
170 19-01-2019 14:05:00 -0.6 C 96 % -1.16 C
171 19-01-2019 14:10:00 -0.6 C 96 % -1.16 C
172 19-01-2019 14:15:00 -0.4 C 95 % -1.1 C
173 19-01-2019 14:20:00 -0.3 C 96 % -0.86 C
174 19-01-2019 14:25:00 -0.2 C 96 % -0.76 C
175 19-01-2019 14:30:00 -0.2 C 95 % -0.9 C
Sensor: Nr:Datum:Temp:Feuchte:Taupunkt:
Aussen-T/F 176 19-01-2019 14:35:00 -0.1 C 95 % -0.8 C
177 19-01-2019 14:40:00 0.1 C 95 % -0.6 C
178 19-01-2019 14:45:00 0.1 C 95 % -0.6 C
179 19-01-2019 14:50:00 0.2 C 95 % -0.5 C
180 19-01-2019 14:55:00 0.2 C 95 % -0.5 C
181 19-01-2019 15:00:00 0.2 C 95 % -0.5 C
182 19-01-2019 15:05:00 0.1 C 95 % -0.6 C
183 19-01-2019 15:10:00 0.1 C 94 % -0.75 C
184 19-01-2019 15:15:00 0.1 C 94 % -0.75 C
185 19-01-2019 15:20:00 0.1 C 94 % -0.75 C
186 19-01-2019 15:25:00 0.1 C 94 % -0.75 C
187 19-01-2019 15:30:00 0.1 C 94 % -0.75 C
188 19-01-2019 15:35:00 0.1 C 94 % -0.75 C
189 19-01-2019 15:40:00 0 C 94 % -0.85 C
190 19-01-2019 15:45:00 0 C 94 % -0.85 C
191 19-01-2019 15:50:00 0 C 94 % -0.85 C
192 19-01-2019 15:55:00 0.1 C 93 % -0.89 C
193 19-01-2019 16:00:00 0.1 C 93 % -0.89 C
194 19-01-2019 16:05:00 0.1 C 93 % -0.89 C
195 19-01-2019 16:10:00 0.1 C 93 % -0.89 C
196 19-01-2019 16:15:00 0.1 C 93 % -0.89 C
197 19-01-2019 16:20:00 0.1 C 93 % -0.89 C
198 19-01-2019 16:25:00 0.1 C 93 % -0.89 C
199 19-01-2019 16:30:00 -0.1 C 92 % -1.24 C
200 19-01-2019 16:35:00 -0.1 C 92 % -1.24 C
Sensor: Nr:Datum:Temp:Feuchte:Taupunkt:
Aussen-T/F 201 19-01-2019 16:40:00 -0.2 C 92 % -1.34 C
202 19-01-2019 16:45:00 -0.3 C 91 % -1.59 C
203 19-01-2019 16:50:00 -0.4 C 91 % -1.69 C
204 19-01-2019 16:55:00 -0.5 C 90 % -1.93 C
205 19-01-2019 17:00:00 -0.6 C 90 % -2.03 C
206 19-01-2019 17:05:00 -0.7 C 90 % -2.13 C
207 19-01-2019 17:10:00 -0.8 C 90 % -2.23 C
208 19-01-2019 17:15:00 -0.9 C 90 % -2.33 C
209 19-01-2019 17:20:00 -1 C 89 % -2.58 C
210 19-01-2019 17:25:00 -1.1 C 89 % -2.68 C
211 19-01-2019 17:30:00 -1.2 C 89 % -2.78 C
212 19-01-2019 17:35:00 -1.2 C 89 % -2.78 C
213 19-01-2019 17:40:00 -1.3 C 89 % -2.88 C
214 19-01-2019 17:45:00 -1.3 C 89 % -2.88 C
215 19-01-2019 17:50:00 -1.3 C 89 % -2.88 C
216 19-01-2019 17:55:00 -1.4 C 89 % -2.97 C
217 19-01-2019 18:00:00 -1.4 C 89 % -2.97 C
218 19-01-2019 18:05:00 -1.5 C 89 % -3.07 C
219 19-01-2019 18:10:00 -1.6 C 89 % -3.17 C
220 19-01-2019 18:15:00 -1.6 C 89 % -3.17 C
221 19-01-2019 18:20:00 -1.6 C 89 % -3.17 C
222 19-01-2019 18:25:00 -1.7 C 89 % -3.27 C
223 19-01-2019 18:30:00 -1.7 C 89 % -3.27 C
224 19-01-2019 18:35:00 -1.8 C 89 % -3.37 C
225 19-01-2019 18:40:00 -1.9 C 89 % -3.47 C
Sensor: Nr:Datum:Temp:Feuchte:Taupunkt:
Aussen-T/F 226 19-01-2019 18:45:00 -2 C 89 % -3.57 C
227 19-01-2019 18:50:00 -2.1 C 89 % -3.66 C
228 19-01-2019 18:55:00 -2.1 C 90 % -3.52 C
229 19-01-2019 19:00:00 -2.2 C 90 % -3.61 C
230 19-01-2019 19:05:00 -2.2 C 89 % -3.76 C
231 19-01-2019 19:10:00 -2.3 C 89 % -3.86 C
232 19-01-2019 19:15:00 -2.3 C 89 % -3.86 C
233 19-01-2019 19:20:00 -2.4 C 89 % -3.96 C
234 19-01-2019 19:25:00 -2.4 C 89 % -3.96 C
235 19-01-2019 19:30:00 -2.5 C 89 % -4.06 C
236 19-01-2019 19:35:00 -2.6 C 89 % -4.16 C
237 19-01-2019 19:40:00 -2.6 C 89 % -4.16 C
238 19-01-2019 19:45:00 -2.6 C 89 % -4.16 C
239 19-01-2019 19:50:00 -2.6 C 89 % -4.16 C
240 19-01-2019 19:55:00 -2.6 C 89 % -4.16 C
241 19-01-2019 20:00:00 -2.6 C 89 % -4.16 C
242 19-01-2019 20:05:00 -2.6 C 90 % -4.01 C
243 19-01-2019 20:10:00 -2.6 C 90 % -4.01 C
244 19-01-2019 20:15:00 -2.7 C 90 % -4.11 C
245 19-01-2019 20:20:00 -2.7 C 90 % -4.11 C
246 19-01-2019 20:25:00 -2.7 C 90 % -4.11 C
247 19-01-2019 20:30:00 -2.7 C 90 % -4.11 C
248 19-01-2019 20:35:00 -2.7 C 90 % -4.11 C
249 19-01-2019 20:40:00 -2.7 C 90 % -4.11 C
250 19-01-2019 20:45:00 -2.7 C 90 % -4.11 C
Sensor: Nr:Datum:Temp:Feuchte:Taupunkt:
Aussen-T/F 251 19-01-2019 20:50:00 -2.8 C 90 % -4.21 C
252 19-01-2019 20:55:00 -2.8 C 90 % -4.21 C
253 19-01-2019 21:00:00 -2.8 C 90 % -4.21 C
254 19-01-2019 21:05:00 -2.8 C 90 % -4.21 C
255 19-01-2019 21:10:00 -2.8 C 90 % -4.21 C
256 19-01-2019 21:15:00 -2.7 C 90 % -4.11 C
257 19-01-2019 21:20:00 -2.7 C 90 % -4.11 C
258 19-01-2019 21:25:00 -2.7 C 90 % -4.11 C
259 19-01-2019 21:30:00 -2.8 C 89 % -4.36 C
260 19-01-2019 21:35:00 -2.8 C 89 % -4.36 C
261 19-01-2019 21:40:00 -2.9 C 90 % -4.31 C
262 19-01-2019 21:45:00 -3 C 90 % -4.4 C
263 19-01-2019 21:50:00 -3.1 C 90 % -4.5 C
264 19-01-2019 21:55:00 -3.2 C 90 % -4.6 C
265 19-01-2019 22:00:00 -3.3 C 90 % -4.7 C
266 19-01-2019 22:05:00 -3.3 C 90 % -4.7 C
267 19-01-2019 22:10:00 -3.4 C 90 % -4.8 C
268 19-01-2019 22:15:00 -3.6 C 90 % -5 C
269 19-01-2019 22:20:00 -3.7 C 90 % -5.1 C
270 19-01-2019 22:25:00 -3.8 C 90 % -5.2 C
271 19-01-2019 22:30:00 -3.8 C 90 % -5.2 C
272 19-01-2019 22:35:00 -3.9 C 90 % -5.29 C
273 19-01-2019 22:40:00 -4 C 91 % -5.25 C
274 19-01-2019 22:45:00 -4 C 91 % -5.25 C
275 19-01-2019 22:50:00 -4.1 C 91 % -5.35 C
Sensor: Nr:Datum:Temp:Feuchte:Taupunkt:
Aussen-T/F 276 19-01-2019 22:55:00 -4.1 C 91 % -5.35 C
277 19-01-2019 23:00:00 -4.1 C 91 % -5.35 C
278 19-01-2019 23:05:00 -4.2 C 91 % -5.45 C
279 19-01-2019 23:10:00 -4.2 C 91 % -5.45 C
280 19-01-2019 23:15:00 -4.3 C 91 % -5.54 C
281 19-01-2019 23:20:00 -4.3 C 92 % -5.4 C
282 19-01-2019 23:25:00 -4.3 C 92 % -5.4 C
283 19-01-2019 23:30:00 -4.3 C 92 % -5.4 C
284 19-01-2019 23:35:00 -4.3 C 92 % -5.4 C
285 19-01-2019 23:40:00 -4.3 C 92 % -5.4 C
286 19-01-2019 23:45:00 -4.3 C 92 % -5.4 C
287 19-01-2019 23:50:00 -4.5 C 91 % -5.74 C
288 19-01-2019 23:55:00 -4.5 C 92 % -5.6 C
289 20-01-2019 00:00:00 -4.6 C 92 % -5.7 C
290 20-01-2019 00:05:00 -4.6 C 92 % -5.7 C
291 20-01-2019 00:10:00 -4.7 C 92 % -5.8 C
292 20-01-2019 00:15:00 -4.7 C 92 % -5.8 C
293 20-01-2019 00:20:00 -4.7 C 92 % -5.8 C
294 20-01-2019 00:25:00 -4.8 C 92 % -5.9 C
295 20-01-2019 00:30:00 -4.8 C 92 % -5.9 C
296 20-01-2019 00:35:00 -4.7 C 93 % -5.66 C
297 20-01-2019 00:40:00 -4.7 C 93 % -5.66 C
298 20-01-2019 00:45:00 -4.8 C 93 % -5.75 C
299 20-01-2019 00:50:00 -4.8 C 93 % -5.75 C
300 20-01-2019 00:55:00 -4.9 C 92 % -6 C
Sensor: Nr:Datum:Temp:Feuchte:Taupunkt:
Aussen-T/F 301 20-01-2019 01:00:00 -5.1 C 92 % -6.19 C
302 20-01-2019 01:05:00 -5.1 C 92 % -6.19 C
303 20-01-2019 01:10:00 -5.2 C 93 % -6.15 C
304 20-01-2019 01:15:00 -5.2 C 93 % -6.15 C
305 20-01-2019 01:20:00 -5.3 C 93 % -6.25 C
306 20-01-2019 01:25:00 -5.3 C 93 % -6.25 C
307 20-01-2019 01:30:00 -5.4 C 93 % -6.35 C
308 20-01-2019 01:35:00 -5.4 C 93 % -6.35 C
309 20-01-2019 01:40:00 -5.4 C 93 % -6.35 C
310 20-01-2019 01:45:00 -5.3 C 93 % -6.25 C
311 20-01-2019 01:50:00 -5.4 C 93 % -6.35 C
312 20-01-2019 01:55:00 -5.4 C 93 % -6.35 C
313 20-01-2019 02:00:00 -5.4 C 93 % -6.35 C
314 20-01-2019 02:05:00 -5.5 C 93 % -6.45 C
315 20-01-2019 02:10:00 -5.6 C 93 % -6.55 C
316 20-01-2019 02:15:00 -5.7 C 93 % -6.65 C
317 20-01-2019 02:20:00 -5.7 C 93 % -6.65 C
318 20-01-2019 02:25:00 -5.7 C 93 % -6.65 C
319 20-01-2019 02:30:00 -5.7 C 93 % -6.65 C
320 20-01-2019 02:35:00 -5.6 C 93 % -6.55 C
321 20-01-2019 02:40:00 -5.6 C 93 % -6.55 C
322 20-01-2019 02:45:00 -5.7 C 93 % -6.65 C
323 20-01-2019 02:50:00 -5.7 C 93 % -6.65 C
324 20-01-2019 02:55:00 -5.7 C 93 % -6.65 C
325 20-01-2019 03:00:00 -5.7 C 93 % -6.65 C
Sensor: Nr:Datum:Temp:Feuchte:Taupunkt:
Aussen-T/F 326 20-01-2019 03:05:00 -5.7 C 93 % -6.65 C
327 20-01-2019 03:10:00 -5.7 C 93 % -6.65 C
328 20-01-2019 03:15:00 -5.7 C 93 % -6.65 C
329 20-01-2019 03:20:00 -5.8 C 93 % -6.75 C
330 20-01-2019 03:25:00 -5.8 C 93 % -6.75 C
331 20-01-2019 03:30:00 -5.8 C 94 % -6.61 C
332 20-01-2019 03:35:00 -5.8 C 94 % -6.61 C
333 20-01-2019 03:40:00 -5.9 C 94 % -6.71 C
334 20-01-2019 03:45:00 -5.9 C 93 % -6.85 C
335 20-01-2019 03:50:00 -6 C 93 % -6.95 C
336 20-01-2019 03:55:00 -6.1 C 93 % -7.04 C
337 20-01-2019 04:00:00 -6.2 C 93 % -7.14 C
338 20-01-2019 04:05:00 -6.2 C 93 % -7.14 C
339 20-01-2019 04:10:00 -6.2 C 93 % -7.14 C
340 20-01-2019 04:15:00 -6.2 C 93 % -7.14 C
341 20-01-2019 04:20:00 -6.2 C 93 % -7.14 C
342 20-01-2019 04:25:00 -6.2 C 93 % -7.14 C
343 20-01-2019 04:30:00 -6.2 C 93 % -7.14 C
344 20-01-2019 04:35:00 -6.2 C 93 % -7.14 C
345 20-01-2019 04:40:00 -6.3 C 93 % -7.24 C
346 20-01-2019 04:45:00 -6.3 C 93 % -7.24 C
347 20-01-2019 04:50:00 -6.3 C 93 % -7.24 C
348 20-01-2019 04:55:00 -6.4 C 93 % -7.34 C
349 20-01-2019 05:00:00 -6.4 C 93 % -7.34 C
350 20-01-2019 05:05:00 -6.6 C 93 % -7.54 C
Sensor: Nr:Datum:Temp:Feuchte:Taupunkt:
Aussen-T/F 351 20-01-2019 05:10:00 -6.6 C 93 % -7.54 C
352 20-01-2019 05:15:00 -6.6 C 93 % -7.54 C
353 20-01-2019 05:20:00 -6.6 C 93 % -7.54 C
354 20-01-2019 05:25:00 -6.6 C 93 % -7.54 C
355 20-01-2019 05:30:00 -6.6 C 93 % -7.54 C
356 20-01-2019 05:35:00 -6.7 C 93 % -7.64 C
357 20-01-2019 05:40:00 -6.7 C 93 % -7.64 C
358 20-01-2019 05:45:00 -6.7 C 94 % -7.5 C
359 20-01-2019 05:50:00 -6.7 C 94 % -7.5 C
360 20-01-2019 05:55:00 -6.7 C 94 % -7.5 C
361 20-01-2019 06:00:00 -6.7 C 94 % -7.5 C
362 20-01-2019 06:05:00 -6.7 C 93 % -7.64 C
363 20-01-2019 06:10:00 -6.7 C 93 % -7.64 C
364 20-01-2019 06:15:00 -6.7 C 93 % -7.64 C
365 20-01-2019 06:20:00 -6.8 C 94 % -7.6 C
366 20-01-2019 06:25:00 -6.8 C 93 % -7.74 C
367 20-01-2019 06:30:00 -6.9 C 93 % -7.84 C
368 20-01-2019 06:35:00 -6.9 C 93 % -7.84 C
369 20-01-2019 06:40:00 -6.9 C 93 % -7.84 C
370 20-01-2019 06:45:00 -6.9 C 94 % -7.7 C
371 20-01-2019 06:50:00 -6.8 C 94 % -7.6 C
372 20-01-2019 06:55:00 -6.8 C 94 % -7.6 C
373 20-01-2019 07:00:00 -6.8 C 94 % -7.6 C
374 20-01-2019 07:05:00 -6.9 C 93 % -7.84 C
375 20-01-2019 07:10:00 -7 C 93 % -7.94 C
Sensor: Nr:Datum:Temp:Feuchte:Taupunkt:
Aussen-T/F 376 20-01-2019 07:15:00 -7.1 C 93 % -8.04 C
377 20-01-2019 07:20:00 -7.1 C 93 % -8.04 C
378 20-01-2019 07:25:00 -7.1 C 93 % -8.04 C
379 20-01-2019 07:30:00 -7.2 C 93 % -8.14 C
380 20-01-2019 07:35:00 -7.2 C 93 % -8.14 C
381 20-01-2019 07:40:00 -7.2 C 93 % -8.14 C
382 20-01-2019 07:45:00 -7 C 94 % -7.8 C
383 20-01-2019 07:50:00 -6.9 C 94 % -7.7 C
384 20-01-2019 07:55:00 -7.1 C 93 % -8.04 C
385 20-01-2019 08:00:00 -7.2 C 93 % -8.14 C
386 20-01-2019 08:05:00 -7.2 C 93 % -8.14 C
387 20-01-2019 08:10:00 -7.2 C 93 % -8.14 C
388 20-01-2019 08:15:00 -7.3 C 93 % -8.23 C
389 20-01-2019 08:20:00 -7.3 C 93 % -8.23 C
390 20-01-2019 08:25:00 -7.4 C 93 % -8.33 C
391 20-01-2019 08:30:00 -7.4 C 93 % -8.33 C
392 20-01-2019 08:35:00 -7.4 C 93 % -8.33 C
393 20-01-2019 08:40:00 -7.4 C 93 % -8.33 C
394 20-01-2019 08:45:00 -7.4 C 93 % -8.33 C
395 20-01-2019 08:50:00 -7.4 C 93 % -8.33 C
396 20-01-2019 08:55:00 -7.4 C 93 % -8.33 C
397 20-01-2019 09:00:00 -7.3 C 93 % -8.23 C
398 20-01-2019 09:05:00 -7.3 C 94 % -8.1 C
399 20-01-2019 09:10:00 -7.3 C 94 % -8.1 C
400 20-01-2019 09:15:00 -7.2 C 94 % -8 C
Sensor: Nr:Datum:Temp:Feuchte:Taupunkt:
Aussen-T/F 401 20-01-2019 09:20:00 -7.2 C 94 % -8 C
402 20-01-2019 09:25:00 -7.2 C 94 % -8 C
403 20-01-2019 09:30:00 -7.1 C 94 % -7.9 C
404 20-01-2019 09:35:00 -6.9 C 94 % -7.7 C
405 20-01-2019 09:40:00 -6.9 C 94 % -7.7 C
406 20-01-2019 09:45:00 -6.8 C 94 % -7.6 C
407 20-01-2019 09:50:00 -6.7 C 94 % -7.5 C
408 20-01-2019 09:55:00 -6.6 C 94 % -7.4 C
409 20-01-2019 10:00:00 -6.6 C 94 % -7.4 C
410 20-01-2019 10:05:00 -6.5 C 94 % -7.3 C
411 20-01-2019 10:10:00 -6.4 C 94 % -7.2 C
412 20-01-2019 10:15:00 -6.4 C 94 % -7.2 C
413 20-01-2019 10:20:00 -6.4 C 94 % -7.2 C
414 20-01-2019 10:25:00 -6.3 C 94 % -7.1 C
415 20-01-2019 10:30:00 -6.3 C 94 % -7.1 C
416 20-01-2019 10:35:00 -6.3 C 94 % -7.1 C
417 20-01-2019 10:40:00 -6.2 C 94 % -7.01 C
418 20-01-2019 10:45:00 -6.2 C 94 % -7.01 C
419 20-01-2019 10:50:00 -6 C 94 % -6.81 C
420 20-01-2019 10:55:00 -5.9 C 94 % -6.71 C
421 20-01-2019 11:00:00 -5.8 C 94 % -6.61 C
422 20-01-2019 11:05:00 -5.8 C 94 % -6.61 C
423 20-01-2019 11:10:00 -5.7 C 95 % -6.37 C
424 20-01-2019 11:15:00 -5.6 C 95 % -6.27 C
425 20-01-2019 11:20:00 -5.5 C 94 % -6.31 C
Sensor: Nr:Datum:Temp:Feuchte:Taupunkt:
Aussen-T/F 426 20-01-2019 11:25:00 -5.4 C 95 % -6.07 C
427 20-01-2019 11:30:00 -5.3 C 95 % -5.97 C
428 20-01-2019 11:35:00 -5.3 C 94 % -6.11 C
429 20-01-2019 11:40:00 -5.2 C 95 % -5.87 C
430 20-01-2019 11:45:00 -5.1 C 95 % -5.77 C
431 20-01-2019 11:50:00 -4.9 C 95 % -5.58 C
432 20-01-2019 11:55:00 -4.8 C 95 % -5.48 C
433 20-01-2019 12:00:00 -4.7 C 95 % -5.38 C
434 20-01-2019 12:05:00 -4.6 C 95 % -5.28 C
435 20-01-2019 12:10:00 -4.5 C 94 % -5.32 C
436 20-01-2019 12:15:00 -4.4 C 94 % -5.22 C
437 20-01-2019 12:20:00 -4.3 C 95 % -4.98 C
438 20-01-2019 12:25:00 -4.3 C 94 % -5.12 C
439 20-01-2019 12:30:00 -4.2 C 95 % -4.88 C
440 20-01-2019 12:35:00 -4.1 C 95 % -4.78 C
441 20-01-2019 12:40:00 -4 C 94 % -4.82 C
442 20-01-2019 12:45:00 -3.9 C 94 % -4.72 C
443 20-01-2019 12:50:00 -3.8 C 94 % -4.62 C
444 20-01-2019 12:55:00 -3.8 C 94 % -4.62 C
445 20-01-2019 13:00:00 -3.7 C 94 % -4.52 C
446 20-01-2019 13:05:00 -3.6 C 94 % -4.42 C
447 20-01-2019 13:10:00 -3.5 C 94 % -4.32 C
448 20-01-2019 13:15:00 -3.4 C 94 % -4.22 C
449 20-01-2019 13:20:00 -3.4 C 94 % -4.22 C
450 20-01-2019 13:25:00 -3.3 C 94 % -4.13 C
Sensor: Nr:Datum:Temp:Feuchte:Taupunkt:
Aussen-T/F 451 20-01-2019 13:30:00 -3.2 C 94 % -4.03 C
452 20-01-2019 13:35:00 -3.1 C 94 % -3.93 C
453 20-01-2019 13:40:00 -3.1 C 94 % -3.93 C
454 20-01-2019 13:45:00 -3 C 94 % -3.83 C
455 20-01-2019 13:50:00 -2.9 C 94 % -3.73 C
456 20-01-2019 13:55:00 -2.9 C 94 % -3.73 C
457 20-01-2019 14:00:00 -2.8 C 94 % -3.63 C
458 20-01-2019 14:05:00 -2.8 C 94 % -3.63 C
459 20-01-2019 14:10:00 -2.7 C 93 % -3.67 C
460 20-01-2019 14:15:00 -2.7 C 94 % -3.53 C
461 20-01-2019 14:20:00 -2.6 C 93 % -3.57 C
462 20-01-2019 14:25:00 -2.6 C 93 % -3.57 C
463 20-01-2019 14:30:00 -2.6 C 93 % -3.57 C
464 20-01-2019 14:35:00 -2.5 C 93 % -3.47 C
465 20-01-2019 14:40:00 -2.4 C 93 % -3.37 C
466 20-01-2019 14:45:00 -2.4 C 93 % -3.37 C
467 20-01-2019 14:50:00 -2.3 C 93 % -3.28 C
468 20-01-2019 14:55:00 -2.3 C 93 % -3.28 C
469 20-01-2019 15:00:00 -2.3 C 93 % -3.28 C
470 20-01-2019 15:05:00 -2.2 C 93 % -3.18 C
471 20-01-2019 15:10:00 -2.2 C 93 % -3.18 C
472 20-01-2019 15:15:00 -2.2 C 93 % -3.18 C
473 20-01-2019 15:20:00 -2.1 C 93 % -3.08 C
474 20-01-2019 15:25:00 -2.1 C 93 % -3.08 C
475 20-01-2019 15:30:00 -2 C 93 % -2.98 C
Sensor: Nr:Datum:Temp:Feuchte:Taupunkt:
Aussen-T/F 476 20-01-2019 15:35:00 -1.9 C 93 % -2.88 C
477 20-01-2019 15:40:00 -1.9 C 93 % -2.88 C
478 20-01-2019 15:45:00 -1.9 C 92 % -3.02 C
479 20-01-2019 15:50:00 -1.9 C 92 % -3.02 C
480 20-01-2019 15:55:00 -1.8 C 92 % -2.92 C
481 20-01-2019 16:00:00 -1.8 C 92 % -2.92 C
482 20-01-2019 16:05:00 -1.8 C 92 % -2.92 C
483 20-01-2019 16:10:00 -1.9 C 92 % -3.02 C
484 20-01-2019 16:15:00 -1.9 C 92 % -3.02 C
485 20-01-2019 16:20:00 -1.9 C 92 % -3.02 C
486 20-01-2019 16:25:00 -1.9 C 92 % -3.02 C
487 20-01-2019 16:30:00 -1.9 C 92 % -3.02 C
488 20-01-2019 16:35:00 -2 C 92 % -3.12 C
489 20-01-2019 16:40:00 -2.1 C 92 % -3.22 C
490 20-01-2019 16:45:00 -2.1 C 92 % -3.22 C
491 20-01-2019 16:50:00 -2.2 C 91 % -3.47 C
492 20-01-2019 16:55:00 -2.2 C 91 % -3.47 C
493 20-01-2019 17:00:00 -2.3 C 91 % -3.57 C
494 20-01-2019 17:05:00 -2.3 C 91 % -3.57 C
495 20-01-2019 17:10:00 -2.3 C 91 % -3.57 C
496 20-01-2019 17:15:00 -2.3 C 91 % -3.57 C
497 20-01-2019 17:20:00 -2.4 C 91 % -3.66 C
498 20-01-2019 17:25:00 -2.4 C 90 % -3.81 C
499 20-01-2019 17:30:00 -2.6 C 91 % -3.86 C
500 20-01-2019 17:35:00 -2.6 C 91 % -3.86 C
Sensor: Nr:Datum:Temp:Feuchte:Taupunkt:
Aussen-T/F 501 20-01-2019 17:40:00 -2.6 C 91 % -3.86 C
502 20-01-2019 17:45:00 -2.6 C 91 % -3.86 C
503 20-01-2019 17:50:00 -2.7 C 91 % -3.96 C
504 20-01-2019 17:55:00 -2.8 C 90 % -4.21 C
505 20-01-2019 18:00:00 -2.9 C 90 % -4.31 C
506 20-01-2019 18:05:00 -3.1 C 90 % -4.5 C
507 20-01-2019 18:10:00 -3.2 C 90 % -4.6 C
508 20-01-2019 18:15:00 -3.3 C 90 % -4.7 C
509 20-01-2019 18:20:00 -3.2 C 91 % -4.46 C
510 20-01-2019 18:25:00 -3.3 C 91 % -4.56 C
511 20-01-2019 18:30:00 -3.3 C 91 % -4.56 C
512 20-01-2019 18:35:00 -3.4 C 91 % -4.65 C
513 20-01-2019 18:40:00 -3.4 C 91 % -4.65 C
514 20-01-2019 18:45:00 -3.5 C 91 % -4.75 C
515 20-01-2019 18:50:00 -3.6 C 91 % -4.85 C
516 20-01-2019 18:55:00 -3.6 C 91 % -4.85 C
517 20-01-2019 19:00:00 -3.6 C 92 % -4.71 C
518 20-01-2019 19:05:00 -3.6 C 91 % -4.85 C
519 20-01-2019 19:10:00 -3.7 C 92 % -4.81 C
520 20-01-2019 19:15:00 -3.7 C 92 % -4.81 C
521 20-01-2019 19:20:00 -3.7 C 92 % -4.81 C
522 20-01-2019 19:25:00 -3.7 C 92 % -4.81 C
523 20-01-2019 19:30:00 -3.7 C 92 % -4.81 C
524 20-01-2019 19:35:00 -3.8 C 91 % -5.05 C
525 20-01-2019 19:40:00 -3.9 C 91 % -5.15 C
Sensor: Nr:Datum:Temp:Feuchte:Taupunkt:
Aussen-T/F 526 20-01-2019 19:45:00 -3.9 C 92 % -5 C
527 20-01-2019 19:50:00 -4 C 92 % -5.1 C
528 20-01-2019 19:55:00 -4 C 92 % -5.1 C
529 20-01-2019 20:00:00 -4 C 92 % -5.1 C
530 20-01-2019 20:05:00 -4.1 C 92 % -5.2 C
531 20-01-2019 20:10:00 -4.2 C 91 % -5.45 C
532 20-01-2019 20:15:00 -4.2 C 92 % -5.3 C
533 20-01-2019 20:20:00 -4.2 C 92 % -5.3 C
534 20-01-2019 20:25:00 -4.3 C 92 % -5.4 C
535 20-01-2019 20:30:00 -4.4 C 92 % -5.5 C
536 20-01-2019 20:35:00 -4.6 C 91 % -5.84 C
537 20-01-2019 20:40:00 -4.7 C 92 % -5.8 C
538 20-01-2019 20:45:00 -4.8 C 91 % -6.04 C
539 20-01-2019 20:50:00 -4.9 C 92 % -6 C
540 20-01-2019 20:55:00 -4.9 C 92 % -6 C
541 20-01-2019 21:00:00 -4.9 C 92 % -6 C
542 20-01-2019 21:05:00 -4.9 C 92 % -6 C
543 20-01-2019 21:10:00 -4.9 C 93 % -5.85 C
544 20-01-2019 21:15:00 -4.9 C 92 % -6 C
545 20-01-2019 21:20:00 -5.2 C 92 % -6.29 C
546 20-01-2019 21:25:00 -5.3 C 92 % -6.39 C
547 20-01-2019 21:30:00 -5.3 C 92 % -6.39 C
548 20-01-2019 21:35:00 -5.3 C 92 % -6.39 C
549 20-01-2019 21:40:00 -5.3 C 92 % -6.39 C
550 20-01-2019 21:45:00 -5.3 C 92 % -6.39 C
Sensor: Nr:Datum:Temp:Feuchte:Taupunkt:
Aussen-T/F 551 20-01-2019 21:50:00 -5.4 C 93 % -6.35 C
552 20-01-2019 21:55:00 -5.4 C 93 % -6.35 C
553 20-01-2019 22:00:00 -5.3 C 93 % -6.25 C
554 20-01-2019 22:05:00 -5.4 C 93 % -6.35 C
555 20-01-2019 22:10:00 -5.5 C 93 % -6.45 C
556 20-01-2019 22:15:00 -5.7 C 92 % -6.79 C
557 20-01-2019 22:20:00 -5.7 C 92 % -6.79 C
558 20-01-2019 22:25:00 -5.7 C 93 % -6.65 C
559 20-01-2019 22:30:00 -5.7 C 93 % -6.65 C
560 20-01-2019 22:35:00 -5.7 C 93 % -6.65 C
561 20-01-2019 22:40:00 -5.8 C 93 % -6.75 C
562 20-01-2019 22:45:00 -5.8 C 93 % -6.75 C
563 20-01-2019 22:50:00 -5.9 C 93 % -6.85 C
564 20-01-2019 22:55:00 -5.9 C 93 % -6.85 C
565 20-01-2019 23:00:00 -6 C 93 % -6.95 C
566 20-01-2019 23:05:00 -6.1 C 93 % -7.04 C
567 20-01-2019 23:10:00 -6.1 C 93 % -7.04 C
568 20-01-2019 23:15:00 -6 C 93 % -6.95 C
569 20-01-2019 23:20:00 -6.1 C 93 % -7.04 C
570 20-01-2019 23:25:00 -6.1 C 93 % -7.04 C
571 20-01-2019 23:30:00 -6.2 C 93 % -7.14 C
572 20-01-2019 23:35:00 -6.2 C 93 % -7.14 C
573 20-01-2019 23:40:00 -6.3 C 93 % -7.24 C
574 20-01-2019 23:45:00 -6.3 C 93 % -7.24 C
575 20-01-2019 23:50:00 -6.3 C 93 % -7.24 C
Sensor: Nr:Datum:Temp:Feuchte:Taupunkt:
Aussen-T/F 576 20-01-2019 23:55:00 -6.3 C 93 % -7.24 C
577 21-01-2019 00:00:00 -6.4 C 93 % -7.34 C
578 21-01-2019 00:05:00 -6.5 C 93 % -7.44 C
579 21-01-2019 00:10:00 -6.5 C 93 % -7.44 C
580 21-01-2019 00:15:00 -6.4 C 93 % -7.34 C
581 21-01-2019 00:20:00 -6.4 C 94 % -7.2 C
582 21-01-2019 00:25:00 -6.5 C 93 % -7.44 C
583 21-01-2019 00:30:00 -6.6 C 93 % -7.54 C
584 21-01-2019 00:35:00 -6.6 C 93 % -7.54 C
585 21-01-2019 00:40:00 -6.4 C 94 % -7.2 C
586 21-01-2019 00:45:00 -6.3 C 94 % -7.1 C
587 21-01-2019 00:50:00 -6.4 C 94 % -7.2 C
588 21-01-2019 00:55:00 -6.5 C 93 % -7.44 C
589 21-01-2019 01:00:00 -6.5 C 93 % -7.44 C
590 21-01-2019 01:05:00 -6.6 C 93 % -7.54 C
591 21-01-2019 01:10:00 -6.6 C 93 % -7.54 C
592 21-01-2019 01:15:00 -6.6 C 94 % -7.4 C
593 21-01-2019 01:20:00 -6.6 C 94 % -7.4 C
594 21-01-2019 01:25:00 -6.6 C 94 % -7.4 C
595 21-01-2019 01:30:00 -6.4 C 94 % -7.2 C
596 21-01-2019 01:35:00 -6.5 C 94 % -7.3 C
597 21-01-2019 01:40:00 -6.6 C 94 % -7.4 C
598 21-01-2019 01:45:00 -6.6 C 94 % -7.4 C
599 21-01-2019 01:50:00 -6.6 C 94 % -7.4 C
600 21-01-2019 01:55:00 -6.6 C 94 % -7.4 C
Sensor: Nr:Datum:Temp:Feuchte:Taupunkt:
Aussen-T/F 601 21-01-2019 02:00:00 -6.7 C 93 % -7.64 C
602 21-01-2019 02:05:00 -6.7 C 93 % -7.64 C
603 21-01-2019 02:10:00 -6.7 C 94 % -7.5 C
604 21-01-2019 02:15:00 -6.8 C 94 % -7.6 C
605 21-01-2019 02:20:00 -6.8 C 94 % -7.6 C
606 21-01-2019 02:25:00 -6.8 C 94 % -7.6 C
607 21-01-2019 02:30:00 -6.9 C 93 % -7.84 C
608 21-01-2019 02:35:00 -7 C 94 % -7.8 C
609 21-01-2019 02:40:00 -7 C 93 % -7.94 C
610 21-01-2019 02:45:00 -7.1 C 93 % -8.04 C
611 21-01-2019 02:50:00 -7.2 C 93 % -8.14 C
612 21-01-2019 02:55:00 -7.2 C 93 % -8.14 C
613 21-01-2019 03:00:00 -7.2 C 94 % -8 C
614 21-01-2019 03:05:00 -7.2 C 94 % -8 C
615 21-01-2019 03:10:00 -7.3 C 93 % -8.23 C
616 21-01-2019 03:15:00 -7.3 C 93 % -8.23 C
617 21-01-2019 03:20:00 -7.4 C 93 % -8.33 C
618 21-01-2019 03:25:00 -7.5 C 93 % -8.43 C
619 21-01-2019 03:30:00 -7.4 C 93 % -8.33 C
620 21-01-2019 03:35:00 -7.4 C 94 % -8.2 C
621 21-01-2019 03:40:00 -7.3 C 94 % -8.1 C
622 21-01-2019 03:45:00 -7.4 C 94 % -8.2 C
623 21-01-2019 03:50:00 -7.4 C 94 % -8.2 C
624 21-01-2019 03:55:00 -7.4 C 94 % -8.2 C
625 21-01-2019 04:00:00 -7.4 C 94 % -8.2 C
Sensor: Nr:Datum:Temp:Feuchte:Taupunkt:
Aussen-T/F 626 21-01-2019 04:05:00 -7.6 C 94 % -8.4 C
627 21-01-2019 04:10:00 -7.6 C 94 % -8.4 C
628 21-01-2019 04:15:00 -7.6 C 94 % -8.4 C
629 21-01-2019 04:20:00 -7.6 C 94 % -8.4 C
630 21-01-2019 04:25:00 -7.6 C 94 % -8.4 C
631 21-01-2019 04:30:00 -7.6 C 94 % -8.4 C
632 21-01-2019 04:35:00 -7.6 C 94 % -8.4 C
633 21-01-2019 04:40:00 -7.7 C 93 % -8.63 C
634 21-01-2019 04:45:00 -7.8 C 93 % -8.73 C
635 21-01-2019 04:50:00 -7.8 C 93 % -8.73 C
636 21-01-2019 04:55:00 -7.8 C 93 % -8.73 C
637 21-01-2019 05:00:00 -7.8 C 94 % -8.59 C
638 21-01-2019 05:05:00 -7.7 C 94 % -8.49 C
639 21-01-2019 05:10:00 -7.7 C 94 % -8.49 C
640 21-01-2019 05:15:00 -7.8 C 93 % -8.73 C
641 21-01-2019 05:20:00 -7.8 C 93 % -8.73 C
642 21-01-2019 05:25:00 -7.8 C 93 % -8.73 C
643 21-01-2019 05:30:00 -7.9 C 93 % -8.83 C
644 21-01-2019 05:35:00 -8 C 93 % -8.93 C
645 21-01-2019 05:40:00 -8 C 93 % -8.93 C
646 21-01-2019 05:45:00 -8.1 C 93 % -9.03 C
647 21-01-2019 05:50:00 -8 C 93 % -8.93 C
648 21-01-2019 05:55:00 -8.1 C 93 % -9.03 C
649 21-01-2019 06:00:00 -8.1 C 93 % -9.03 C
650 21-01-2019 06:05:00 -8.1 C 93 % -9.03 C
Sensor: Nr:Datum:Temp:Feuchte:Taupunkt:
Aussen-T/F 651 21-01-2019 06:10:00 -8.1 C 93 % -9.03 C
652 21-01-2019 06:15:00 -8.1 C 93 % -9.03 C
653 21-01-2019 06:20:00 -8.1 C 94 % -8.89 C
654 21-01-2019 06:25:00 -8.1 C 93 % -9.03 C
655 21-01-2019 06:30:00 -8 C 93 % -8.93 C
656 21-01-2019 06:35:00 -8 C 93 % -8.93 C
657 21-01-2019 06:40:00 -8.1 C 93 % -9.03 C
658 21-01-2019 06:45:00 -8.1 C 93 % -9.03 C
659 21-01-2019 06:50:00 -8.1 C 93 % -9.03 C
660 21-01-2019 06:55:00 -8.2 C 93 % -9.13 C
661 21-01-2019 07:00:00 -8.2 C 93 % -9.13 C
662 21-01-2019 07:05:00 -8.3 C 93 % -9.23 C
663 21-01-2019 07:10:00 -8.3 C 93 % -9.23 C
664 21-01-2019 07:15:00 -8.3 C 93 % -9.23 C
665 21-01-2019 07:20:00 -8.3 C 93 % -9.23 C
666 21-01-2019 07:25:00 -8.3 C 93 % -9.23 C
667 21-01-2019 07:30:00 -8.3 C 93 % -9.23 C
668 21-01-2019 07:35:00 -8.4 C 93 % -9.33 C
669 21-01-2019 07:40:00 -8.4 C 93 % -9.33 C
670 21-01-2019 07:45:00 -8.5 C 93 % -9.43 C
671 21-01-2019 07:50:00 -8.5 C 93 % -9.43 C
672 21-01-2019 07:55:00 -8.5 C 93 % -9.43 C
673 21-01-2019 08:00:00 -8.6 C 93 % -9.52 C
674 21-01-2019 08:05:00 -8.5 C 93 % -9.43 C
675 21-01-2019 08:10:00 -8.5 C 93 % -9.43 C
Sensor: Nr:Datum:Temp:Feuchte:Taupunkt:
Aussen-T/F 676 21-01-2019 08:15:00 -8.4 C 93 % -9.33 C
677 21-01-2019 08:20:00 -8.4 C 93 % -9.33 C
678 21-01-2019 08:25:00 -8.5 C 93 % -9.43 C
679 21-01-2019 08:30:00 -8.6 C 93 % -9.52 C
680 21-01-2019 08:35:00 -8.6 C 93 % -9.52 C
681 21-01-2019 08:40:00 -8.6 C 93 % -9.52 C
682 21-01-2019 08:45:00 -8.7 C 93 % -9.62 C
683 21-01-2019 08:50:00 -8.6 C 93 % -9.52 C
684 21-01-2019 08:55:00 -8.6 C 93 % -9.52 C
685 21-01-2019 09:00:00 -8.6 C 93 % -9.52 C
686 21-01-2019 09:05:00 -8.5 C 93 % -9.43 C
687 21-01-2019 09:10:00 -8.4 C 93 % -9.33 C
688 21-01-2019 09:15:00 -8.4 C 93 % -9.33 C
689 21-01-2019 09:20:00 -8.3 C 93 % -9.23 C
690 21-01-2019 09:25:00 -8.3 C 93 % -9.23 C
691 21-01-2019 09:30:00 -8.2 C 93 % -9.13 C
692 21-01-2019 09:35:00 -8.2 C 93 % -9.13 C
693 21-01-2019 09:40:00 -8.1 C 94 % -8.89 C
694 21-01-2019 09:45:00 -8 C 94 % -8.79 C
695 21-01-2019 09:50:00 -7.9 C 94 % -8.69 C
696 21-01-2019 09:55:00 -7.8 C 94 % -8.59 C
697 21-01-2019 10:00:00 -7.8 C 94 % -8.59 C
698 21-01-2019 10:05:00 -7.8 C 94 % -8.59 C
699 21-01-2019 10:10:00 -7.7 C 94 % -8.49 C
700 21-01-2019 10:15:00 -7.7 C 94 % -8.49 C
Sensor: Nr:Datum:Temp:Feuchte:Taupunkt:
Aussen-T/F 701 21-01-2019 10:20:00 -7.7 C 94 % -8.49 C
702 21-01-2019 10:25:00 -7.6 C 94 % -8.4 C
703 21-01-2019 10:30:00 -7.6 C 94 % -8.4 C
704 21-01-2019 10:35:00 -7.6 C 94 % -8.4 C
705 21-01-2019 10:40:00 -7.4 C 94 % -8.2 C
706 21-01-2019 10:45:00 -7.3 C 94 % -8.1 C
707 21-01-2019 10:50:00 -7.2 C 94 % -8 C
708 21-01-2019 10:55:00 -7 C 94 % -7.8 C
709 21-01-2019 11:00:00 -6.7 C 95 % -7.36 C
710 21-01-2019 11:05:00 -6.5 C 95 % -7.17 C
711 21-01-2019 11:10:00 -6.2 C 95 % -6.87 C
712 21-01-2019 11:15:00 -6 C 95 % -6.67 C
713 21-01-2019 11:20:00 -5.8 C 95 % -6.47 C
714 21-01-2019 11:25:00 -5.7 C 95 % -6.37 C
715 21-01-2019 11:30:00 -5.5 C 95 % -6.17 C
716 21-01-2019 11:35:00 -5.3 C 95 % -5.97 C
717 21-01-2019 11:40:00 -5.3 C 95 % -5.97 C
718 21-01-2019 11:45:00 -5.2 C 95 % -5.87 C
719 21-01-2019 11:50:00 -5.2 C 95 % -5.87 C
720 21-01-2019 11:55:00 -5.1 C 95 % -5.77 C
721 21-01-2019 12:00:00 -5 C 95 % -5.67 C
722 21-01-2019 12:05:00 -5 C 95 % -5.67 C
723 21-01-2019 12:10:00 -4.9 C 95 % -5.58 C
724 21-01-2019 12:15:00 -4.9 C 95 % -5.58 C
725 21-01-2019 12:20:00 -4.9 C 95 % -5.58 C
Sensor: Nr:Datum:Temp:Feuchte:Taupunkt:
Aussen-T/F 726 21-01-2019 12:25:00 -4.9 C 95 % -5.58 C
727 21-01-2019 12:30:00 -4.8 C 95 % -5.48 C
728 21-01-2019 12:35:00 -4.8 C 95 % -5.48 C
729 21-01-2019 12:40:00 -4.8 C 95 % -5.48 C
730 21-01-2019 12:45:00 -4.8 C 95 % -5.48 C
731 21-01-2019 12:50:00 -4.8 C 94 % -5.61 C
732 21-01-2019 12:55:00 -4.8 C 94 % -5.61 C
733 21-01-2019 13:00:00 -4.8 C 94 % -5.61 C
734 21-01-2019 13:05:00 -4.8 C 94 % -5.61 C
735 21-01-2019 13:10:00 -4.7 C 95 % -5.38 C
736 21-01-2019 13:15:00 -4.7 C 95 % -5.38 C
737 21-01-2019 13:20:00 -4.6 C 95 % -5.28 C
738 21-01-2019 13:25:00 -4.5 C 95 % -5.18 C
739 21-01-2019 13:30:00 -4.4 C 95 % -5.08 C
740 21-01-2019 13:35:00 -4.4 C 95 % -5.08 C
741 21-01-2019 13:40:00 -4.3 C 95 % -4.98 C
742 21-01-2019 13:45:00 -4.3 C 95 % -4.98 C
743 21-01-2019 13:50:00 -4.2 C 95 % -4.88 C
744 21-01-2019 13:55:00 -4.2 C 95 % -4.88 C
745 21-01-2019 14:00:00 -4.2 C 95 % -4.88 C
746 21-01-2019 14:05:00 -4.1 C 95 % -4.78 C
747 21-01-2019 14:10:00 -4 C 95 % -4.68 C
748 21-01-2019 14:15:00 -3.9 C 95 % -4.58 C
749 21-01-2019 14:20:00 -3.8 C 95 % -4.48 C
750 21-01-2019 14:25:00 -3.8 C 95 % -4.48 C
Sensor: Nr:Datum:Temp:Feuchte:Taupunkt:
Aussen-T/F 751 21-01-2019 14:30:00 -3.7 C 95 % -4.38 C
752 21-01-2019 14:35:00 -3.7 C 95 % -4.38 C
753 21-01-2019 14:40:00 -3.6 C 95 % -4.28 C
754 21-01-2019 14:45:00 -3.6 C 95 % -4.28 C
755 21-01-2019 14:50:00 -3.5 C 95 % -4.18 C
756 21-01-2019 14:55:00 -3.4 C 95 % -4.08 C
757 21-01-2019 15:00:00 -3.4 C 95 % -4.08 C
758 21-01-2019 15:05:00 -3.4 C 95 % -4.08 C
759 21-01-2019 15:10:00 -3.4 C 95 % -4.08 C
760 21-01-2019 15:15:00 -3.3 C 95 % -3.98 C
761 21-01-2019 15:20:00 -3.3 C 95 % -3.98 C
762 21-01-2019 15:25:00 -3.3 C 95 % -3.98 C
763 21-01-2019 15:30:00 -3.2 C 95 % -3.88 C
764 21-01-2019 15:35:00 -3.2 C 95 % -3.88 C
765 21-01-2019 15:40:00 -3.2 C 95 % -3.88 C
766 21-01-2019 15:45:00 -3.2 C 95 % -3.88 C
767 21-01-2019 15:50:00 -3.2 C 95 % -3.88 C
768 21-01-2019 15:55:00 -3.2 C 95 % -3.88 C
769 21-01-2019 16:00:00 -3.2 C 95 % -3.88 C
770 21-01-2019 16:05:00 -3.2 C 95 % -3.88 C
771 21-01-2019 16:10:00 -3.2 C 95 % -3.88 C
772 21-01-2019 16:15:00 -3.2 C 94 % -4.03 C
773 21-01-2019 16:20:00 -3.2 C 94 % -4.03 C
774 21-01-2019 16:25:00 -3.2 C 94 % -4.03 C
775 21-01-2019 16:30:00 -3.2 C 95 % -3.88 C
Sensor: Nr:Datum:Temp:Feuchte:Taupunkt:
Aussen-T/F 776 21-01-2019 16:35:00 -3.3 C 95 % -3.98 C
777 21-01-2019 16:40:00 -3.3 C 94 % -4.13 C
778 21-01-2019 16:45:00 -3.4 C 94 % -4.22 C
779 21-01-2019 16:50:00 -3.4 C 94 % -4.22 C
780 21-01-2019 16:55:00 -3.4 C 94 % -4.22 C
781 21-01-2019 17:00:00 -3.5 C 94 % -4.32 C
782 21-01-2019 17:05:00 -3.6 C 94 % -4.42 C
783 21-01-2019 17:10:00 -3.7 C 94 % -4.52 C
784 21-01-2019 17:15:00 -3.7 C 94 % -4.52 C
785 21-01-2019 17:20:00 -3.8 C 94 % -4.62 C
786 21-01-2019 17:25:00 -3.8 C 94 % -4.62 C
787 21-01-2019 17:30:00 -3.9 C 94 % -4.72 C
788 21-01-2019 17:35:00 -3.9 C 94 % -4.72 C
789 21-01-2019 17:40:00 -3.9 C 94 % -4.72 C
790 21-01-2019 17:45:00 -4 C 94 % -4.82 C
791 21-01-2019 17:50:00 -4.1 C 94 % -4.92 C
792 21-01-2019 17:55:00 -4.1 C 94 % -4.92 C
793 21-01-2019 18:00:00 -4.2 C 94 % -5.02 C
794 21-01-2019 18:05:00 -4.2 C 94 % -5.02 C
795 21-01-2019 18:10:00 -4.3 C 94 % -5.12 C
796 21-01-2019 18:15:00 -4.3 C 94 % -5.12 C
797 21-01-2019 18:20:00 -4.4 C 94 % -5.22 C
798 21-01-2019 18:25:00 -4.4 C 94 % -5.22 C
799 21-01-2019 18:30:00 -4.5 C 94 % -5.32 C
800 21-01-2019 18:35:00 -4.6 C 94 % -5.42 C
Sensor: Nr:Datum:Temp:Feuchte:Taupunkt:
Aussen-T/F 801 21-01-2019 18:40:00 -4.6 C 94 % -5.42 C
802 21-01-2019 18:45:00 -4.7 C 94 % -5.52 C
803 21-01-2019 18:50:00 -4.8 C 93 % -5.75 C
804 21-01-2019 18:55:00 -5 C 93 % -5.95 C
805 21-01-2019 19:00:00 -5.2 C 93 % -6.15 C
806 21-01-2019 19:05:00 -5.3 C 93 % -6.25 C
807 21-01-2019 19:10:00 -5.4 C 93 % -6.35 C
808 21-01-2019 19:15:00 -5.5 C 93 % -6.45 C
809 21-01-2019 19:20:00 -5.4 C 94 % -6.21 C
810 21-01-2019 19:25:00 -5.4 C 94 % -6.21 C
811 21-01-2019 19:30:00 -5.3 C 94 % -6.11 C
812 21-01-2019 19:35:00 -5.3 C 94 % -6.11 C
813 21-01-2019 19:40:00 -5.4 C 94 % -6.21 C
814 21-01-2019 19:45:00 -5.5 C 94 % -6.31 C
815 21-01-2019 19:50:00 -5.6 C 93 % -6.55 C
816 21-01-2019 19:55:00 -5.7 C 93 % -6.65 C
817 21-01-2019 20:00:00 -5.7 C 94 % -6.51 C
818 21-01-2019 20:05:00 -5.7 C 94 % -6.51 C
819 21-01-2019 20:10:00 -5.8 C 93 % -6.75 C
820 21-01-2019 20:15:00 -6 C 93 % -6.95 C
821 21-01-2019 20:20:00 -6.1 C 93 % -7.04 C
822 21-01-2019 20:25:00 -6.1 C 93 % -7.04 C
823 21-01-2019 20:30:00 -6.2 C 93 % -7.14 C
824 21-01-2019 20:35:00 -6.2 C 93 % -7.14 C
825 21-01-2019 20:40:00 -6.2 C 93 % -7.14 C
Sensor: Nr:Datum:Temp:Feuchte:Taupunkt:
Aussen-T/F 826 21-01-2019 20:45:00 -6.2 C 93 % -7.14 C
827 21-01-2019 20:50:00 -6.2 C 93 % -7.14 C
828 21-01-2019 20:55:00 -6.2 C 94 % -7.01 C
829 21-01-2019 21:00:00 -6.2 C 94 % -7.01 C
830 21-01-2019 21:05:00 -6.2 C 94 % -7.01 C
831 21-01-2019 21:10:00 -6.3 C 94 % -7.1 C
832 21-01-2019 21:15:00 -6.3 C 94 % -7.1 C
833 21-01-2019 21:20:00 -6.3 C 94 % -7.1 C
834 21-01-2019 21:25:00 -6.3 C 94 % -7.1 C
835 21-01-2019 21:30:00 -6.4 C 94 % -7.2 C
836 21-01-2019 21:35:00 -6.5 C 93 % -7.44 C
837 21-01-2019 21:40:00 -6.6 C 93 % -7.54 C
838 21-01-2019 21:45:00 -6.6 C 93 % -7.54 C
839 21-01-2019 21:50:00 -6.6 C 94 % -7.4 C
840 21-01-2019 21:55:00 -6.6 C 94 % -7.4 C
841 21-01-2019 22:00:00 -6.6 C 94 % -7.4 C
842 21-01-2019 22:05:00 -6.7 C 94 % -7.5 C
843 21-01-2019 22:10:00 -6.7 C 94 % -7.5 C
844 21-01-2019 22:15:00 -6.6 C 94 % -7.4 C
845 21-01-2019 22:20:00 -6.6 C 94 % -7.4 C
846 21-01-2019 22:25:00 -6.7 C 93 % -7.64 C
847 21-01-2019 22:30:00 -6.8 C 94 % -7.6 C
848 21-01-2019 22:35:00 -6.8 C 93 % -7.74 C
849 21-01-2019 22:40:00 -6.9 C 93 % -7.84 C
850 21-01-2019 22:45:00 -6.9 C 94 % -7.7 C
Sensor: Nr:Datum:Temp:Feuchte:Taupunkt:
Aussen-T/F 851 21-01-2019 22:50:00 -6.9 C 94 % -7.7 C
852 21-01-2019 22:55:00 -6.9 C 94 % -7.7 C
853 21-01-2019 23:00:00 -6.9 C 94 % -7.7 C
854 21-01-2019 23:05:00 -6.9 C 94 % -7.7 C
855 21-01-2019 23:10:00 -7.1 C 94 % -7.9 C
856 21-01-2019 23:15:00 -7.1 C 94 % -7.9 C
857 21-01-2019 23:20:00 -7.1 C 93 % -8.04 C
858 21-01-2019 23:25:00 -7.2 C 93 % -8.14 C
859 21-01-2019 23:30:00 -7.2 C 94 % -8 C
860 21-01-2019 23:35:00 -7.1 C 94 % -7.9 C
861 21-01-2019 23:40:00 -7.1 C 94 % -7.9 C
862 21-01-2019 23:45:00 -7.2 C 93 % -8.14 C
863 21-01-2019 23:50:00 -7.2 C 94 % -8 C
864 21-01-2019 23:55:00 -7.2 C 94 % -8 C
865 22-01-2019 00:00:00 -7.3 C 93 % -8.23 C
866 22-01-2019 00:05:00 -7.3 C 94 % -8.1 C
867 22-01-2019 00:10:00 -7.3 C 94 % -8.1 C
868 22-01-2019 00:15:00 -7.3 C 94 % -8.1 C
869 22-01-2019 00:20:00 -7.4 C 93 % -8.33 C
870 22-01-2019 00:25:00 -7.5 C 93 % -8.43 C
871 22-01-2019 00:30:00 -7.6 C 93 % -8.53 C
872 22-01-2019 00:35:00 -7.6 C 93 % -8.53 C
873 22-01-2019 00:40:00 -7.7 C 93 % -8.63 C
874 22-01-2019 00:45:00 -7.7 C 93 % -8.63 C
875 22-01-2019 00:50:00 -7.7 C 93 % -8.63 C
Sensor: Nr:Datum:Temp:Feuchte:Taupunkt:
Aussen-T/F 876 22-01-2019 00:55:00 -7.7 C 93 % -8.63 C
877 22-01-2019 01:00:00 -7.8 C 93 % -8.73 C
878 22-01-2019 01:05:00 -7.8 C 93 % -8.73 C
879 22-01-2019 01:10:00 -7.8 C 93 % -8.73 C
880 22-01-2019 01:15:00 -7.8 C 93 % -8.73 C
881 22-01-2019 01:20:00 -7.8 C 93 % -8.73 C
882 22-01-2019 01:25:00 -7.8 C 93 % -8.73 C
883 22-01-2019 01:30:00 -7.7 C 94 % -8.49 C
884 22-01-2019 01:35:00 -7.7 C 94 % -8.49 C
885 22-01-2019 01:40:00 -7.8 C 93 % -8.73 C
886 22-01-2019 01:45:00 -7.9 C 93 % -8.83 C
887 22-01-2019 01:50:00 -7.9 C 93 % -8.83 C
888 22-01-2019 01:55:00 -7.9 C 93 % -8.83 C
889 22-01-2019 02:00:00 -8 C 93 % -8.93 C
890 22-01-2019 02:05:00 -8.1 C 93 % -9.03 C
891 22-01-2019 02:10:00 -8.1 C 93 % -9.03 C
892 22-01-2019 02:15:00 -8.1 C 93 % -9.03 C
893 22-01-2019 02:20:00 -8.2 C 93 % -9.13 C
894 22-01-2019 02:25:00 -8 C 93 % -8.93 C
895 22-01-2019 02:30:00 -7.9 C 93 % -8.83 C
896 22-01-2019 02:35:00 -8 C 93 % -8.93 C
897 22-01-2019 02:40:00 -8.1 C 93 % -9.03 C
898 22-01-2019 02:45:00 -8.1 C 93 % -9.03 C
899 22-01-2019 02:50:00 -8.1 C 93 % -9.03 C
900 22-01-2019 02:55:00 -8.2 C 93 % -9.13 C
Sensor: Nr:Datum:Temp:Feuchte:Taupunkt:
Aussen-T/F 901 22-01-2019 03:00:00 -8.2 C 93 % -9.13 C
902 22-01-2019 03:05:00 -8.2 C 93 % -9.13 C
903 22-01-2019 03:10:00 -8.2 C 93 % -9.13 C
904 22-01-2019 03:15:00 -8.2 C 93 % -9.13 C
905 22-01-2019 03:20:00 -8.2 C 93 % -9.13 C
906 22-01-2019 03:25:00 -8.2 C 93 % -9.13 C
907 22-01-2019 03:30:00 -8.2 C 93 % -9.13 C
908 22-01-2019 03:35:00 -8.3 C 93 % -9.23 C
909 22-01-2019 03:40:00 -8.3 C 93 % -9.23 C
910 22-01-2019 03:45:00 -8.4 C 93 % -9.33 C
911 22-01-2019 03:50:00 -8.4 C 93 % -9.33 C
912 22-01-2019 03:55:00 -8.5 C 93 % -9.43 C
913 22-01-2019 04:00:00 -8.5 C 93 % -9.43 C
914 22-01-2019 04:05:00 -8.4 C 93 % -9.33 C
915 22-01-2019 04:10:00 -8.4 C 93 % -9.33 C
916 22-01-2019 04:15:00 -8.4 C 93 % -9.33 C
917 22-01-2019 04:20:00 -8.5 C 93 % -9.43 C
918 22-01-2019 04:25:00 -8.6 C 93 % -9.52 C
919 22-01-2019 04:30:00 -8.6 C 93 % -9.52 C
920 22-01-2019 04:35:00 -8.7 C 93 % -9.62 C
921 22-01-2019 04:40:00 -8.7 C 93 % -9.62 C
922 22-01-2019 04:45:00 -8.7 C 93 % -9.62 C
923 22-01-2019 04:50:00 -8.7 C 93 % -9.62 C
924 22-01-2019 04:55:00 -8.7 C 93 % -9.62 C
925 22-01-2019 05:00:00 -8.6 C 93 % -9.52 C
Sensor: Nr:Datum:Temp:Feuchte:Taupunkt:
Aussen-T/F 926 22-01-2019 05:05:00 -8.6 C 93 % -9.52 C
927 22-01-2019 05:10:00 -8.5 C 93 % -9.43 C
928 22-01-2019 05:15:00 -8.4 C 94 % -9.19 C
929 22-01-2019 05:20:00 -8.3 C 93 % -9.23 C
930 22-01-2019 05:25:00 -8.3 C 93 % -9.23 C
931 22-01-2019 05:30:00 -8.4 C 93 % -9.33 C
932 22-01-2019 05:35:00 -8.4 C 93 % -9.33 C
933 22-01-2019 05:40:00 -8.6 C 93 % -9.52 C
934 22-01-2019 05:45:00 -8.7 C 93 % -9.62 C
935 22-01-2019 05:50:00 -8.7 C 93 % -9.62 C
936 22-01-2019 05:55:00 -8.7 C 93 % -9.62 C
937 22-01-2019 06:00:00 -8.7 C 93 % -9.62 C
938 22-01-2019 06:05:00 -8.7 C 93 % -9.62 C
939 22-01-2019 06:10:00 -8.7 C 93 % -9.62 C
940 22-01-2019 06:15:00 -8.7 C 93 % -9.62 C
941 22-01-2019 06:20:00 -8.7 C 93 % -9.62 C
942 22-01-2019 06:25:00 -8.7 C 93 % -9.62 C
943 22-01-2019 06:30:00 -8.7 C 93 % -9.62 C
944 22-01-2019 06:35:00 -8.8 C 93 % -9.72 C
945 22-01-2019 06:40:00 -8.8 C 93 % -9.72 C
946 22-01-2019 06:45:00 -8.8 C 93 % -9.72 C
947 22-01-2019 06:50:00 -8.8 C 93 % -9.72 C
948 22-01-2019 06:55:00 -8.8 C 93 % -9.72 C
949 22-01-2019 07:00:00 -8.7 C 93 % -9.62 C
950 22-01-2019 07:05:00 -8.7 C 93 % -9.62 C
Sensor: Nr:Datum:Temp:Feuchte:Taupunkt:
Aussen-T/F 951 22-01-2019 07:10:00 -8.6 C 93 % -9.52 C
952 22-01-2019 07:15:00 -8.7 C 93 % -9.62 C
953 22-01-2019 07:20:00 -8.7 C 93 % -9.62 C
954 22-01-2019 07:25:00 -8.7 C 93 % -9.62 C
955 22-01-2019 07:30:00 -8.7 C 93 % -9.62 C
956 22-01-2019 07:35:00 -8.7 C 93 % -9.62 C
957 22-01-2019 07:40:00 -8.7 C 93 % -9.62 C
958 22-01-2019 07:45:00 -8.6 C 93 % -9.52 C
959 22-01-2019 07:50:00 -8.5 C 93 % -9.43 C
960 22-01-2019 07:55:00 -8.5 C 93 % -9.43 C
961 22-01-2019 08:00:00 -8.6 C 93 % -9.52 C
962 22-01-2019 08:05:00 -8.6 C 93 % -9.52 C
963 22-01-2019 08:10:00 -8.6 C 93 % -9.52 C
964 22-01-2019 08:15:00 -8.6 C 93 % -9.52 C
965 22-01-2019 08:20:00 -8.3 C 94 % -9.09 C
966 22-01-2019 08:25:00 -8.1 C 94 % -8.89 C
967 22-01-2019 08:30:00 -8.1 C 94 % -8.89 C
968 22-01-2019 08:35:00 -8 C 94 % -8.79 C
969 22-01-2019 08:40:00 -7.9 C 94 % -8.69 C
970 22-01-2019 08:45:00 -7.9 C 93 % -8.83 C
971 22-01-2019 08:50:00 -7.9 C 93 % -8.83 C
972 22-01-2019 08:55:00 -7.8 C 94 % -8.59 C
973 22-01-2019 09:00:00 -7.8 C 94 % -8.59 C
974 22-01-2019 09:05:00 -7.7 C 94 % -8.49 C
975 22-01-2019 09:10:00 -7.6 C 94 % -8.4 C
Sensor: Nr:Datum:Temp:Feuchte:Taupunkt:
Aussen-T/F 976 22-01-2019 09:15:00 -7.5 C 94 % -8.3 C
977 22-01-2019 09:20:00 -7.4 C 94 % -8.2 C
978 22-01-2019 09:25:00 -7.3 C 94 % -8.1 C
979 22-01-2019 09:30:00 -7.3 C 94 % -8.1 C
980 22-01-2019 09:35:00 -7.2 C 94 % -8 C
981 22-01-2019 09:40:00 -7.2 C 94 % -8 C
982 22-01-2019 09:45:00 -7.1 C 94 % -7.9 C
983 22-01-2019 09:50:00 -7 C 94 % -7.8 C
984 22-01-2019 09:55:00 -6.9 C 94 % -7.7 C
985 22-01-2019 10:00:00 -6.8 C 94 % -7.6 C
986 22-01-2019 10:05:00 -6.8 C 94 % -7.6 C
987 22-01-2019 10:10:00 -6.7 C 94 % -7.5 C
988 22-01-2019 10:15:00 -6.6 C 94 % -7.4 C
989 22-01-2019 10:20:00 -6.5 C 94 % -7.3 C
990 22-01-2019 10:25:00 -6.4 C 94 % -7.2 C
991 22-01-2019 10:30:00 -6.3 C 94 % -7.1 C
992 22-01-2019 10:35:00 -6.2 C 94 % -7.01 C
993 22-01-2019 10:40:00 -6.1 C 94 % -6.91 C
994 22-01-2019 10:45:00 -5.9 C 95 % -6.57 C
995 22-01-2019 10:50:00 -5.8 C 95 % -6.47 C
996 22-01-2019 10:55:00 -5.7 C 95 % -6.37 C
997 22-01-2019 11:00:00 -5.6 C 95 % -6.27 C
998 22-01-2019 11:05:00 -5.5 C 95 % -6.17 C
999 22-01-2019 11:10:00 -5.4 C 95 % -6.07 C
1000 22-01-2019 11:15:00 -5.3 C 95 % -5.97 C
Sensor: Nr:Datum:Temp:Feuchte:Taupunkt:
Aussen-T/F 1001 22-01-2019 11:20:00 -5.2 C 95 % -5.87 C
1002 22-01-2019 11:25:00 -5.1 C 95 % -5.77 C
1003 22-01-2019 11:30:00 -4.9 C 95 % -5.58 C
1004 22-01-2019 11:35:00 -4.8 C 95 % -5.48 C
1005 22-01-2019 11:40:00 -4.7 C 95 % -5.38 C
1006 22-01-2019 11:45:00 -4.6 C 95 % -5.28 C
1007 22-01-2019 11:50:00 -4.5 C 95 % -5.18 C
1008 22-01-2019 11:55:00 -4.3 C 95 % -4.98 C
1009 22-01-2019 12:00:00 -4.2 C 95 % -4.88 C
1010 22-01-2019 12:05:00 -4.1 C 95 % -4.78 C
1011 22-01-2019 12:10:00 -3.8 C 95 % -4.48 C
1012 22-01-2019 12:15:00 -3.6 C 95 % -4.28 C
1013 22-01-2019 12:20:00 -3.4 C 95 % -4.08 C
1014 22-01-2019 12:25:00 -3.3 C 95 % -3.98 C
1015 22-01-2019 12:30:00 -3.1 C 95 % -3.79 C
1016 22-01-2019 12:35:00 -2.9 C 95 % -3.59 C
1017 22-01-2019 12:40:00 -2.7 C 95 % -3.39 C
1018 22-01-2019 12:45:00 -2.5 C 95 % -3.19 C
1019 22-01-2019 12:50:00 -2.3 C 95 % -2.99 C
1020 22-01-2019 12:55:00 -2.2 C 95 % -2.89 C
1021 22-01-2019 13:00:00 -2 C 94 % -2.83 C
1022 22-01-2019 13:05:00 -1.8 C 94 % -2.64 C
1023 22-01-2019 13:10:00 -1.7 C 93 % -2.68 C
1024 22-01-2019 13:15:00 -1.7 C 93 % -2.68 C
1025 22-01-2019 13:20:00 -1.6 C 92 % -2.73 C
Sensor: Nr:Datum:Temp:Feuchte:Taupunkt:
Aussen-T/F 1026 22-01-2019 13:25:00 -1.4 C 92 % -2.53 C
1027 22-01-2019 13:30:00 -1.3 C 91 % -2.58 C
1028 22-01-2019 13:35:00 -1.3 C 92 % -2.43 C
1029 22-01-2019 13:40:00 -1.2 C 91 % -2.48 C
1030 22-01-2019 13:45:00 -1.2 C 91 % -2.48 C
1031 22-01-2019 13:50:00 -1.2 C 90 % -2.63 C
1032 22-01-2019 13:55:00 -1.1 C 90 % -2.53 C
1033 22-01-2019 14:00:00 -1.1 C 89 % -2.68 C
1034 22-01-2019 14:05:00 -1.1 C 89 % -2.68 C
1035 22-01-2019 14:10:00 -0.9 C 89 % -2.48 C
1036 22-01-2019 14:15:00 -0.9 C 89 % -2.48 C
1037 22-01-2019 14:20:00 -0.9 C 89 % -2.48 C
1038 22-01-2019 14:25:00 -0.9 C 89 % -2.48 C
1039 22-01-2019 14:30:00 -0.9 C 88 % -2.63 C
1040 22-01-2019 14:35:00 -0.8 C 89 % -2.38 C
1041 22-01-2019 14:40:00 -0.8 C 88 % -2.53 C
1042 22-01-2019 14:45:00 -0.8 C 88 % -2.53 C
1043 22-01-2019 14:50:00 -0.8 C 88 % -2.53 C
1044 22-01-2019 14:55:00 -0.8 C 87 % -2.69 C
1045 22-01-2019 15:00:00 -0.8 C 88 % -2.53 C
1046 22-01-2019 15:05:00 -0.9 C 87 % -2.79 C
1047 22-01-2019 15:10:00 -0.9 C 87 % -2.79 C
1048 22-01-2019 15:15:00 -1 C 87 % -2.88 C
1049 22-01-2019 15:20:00 -0.9 C 88 % -2.63 C
1050 22-01-2019 15:25:00 -1 C 88 % -2.73 C
Sensor: Nr:Datum:Temp:Feuchte:Taupunkt:
Aussen-T/F 1051 22-01-2019 15:30:00 -1 C 88 % -2.73 C
1052 22-01-2019 15:35:00 -1 C 88 % -2.73 C
1053 22-01-2019 15:40:00 -1.1 C 87 % -2.98 C
1054 22-01-2019 15:45:00 -1.1 C 87 % -2.98 C
1055 22-01-2019 15:50:00 -1.1 C 88 % -2.83 C
1056 22-01-2019 15:55:00 -1.1 C 88 % -2.83 C
1057 22-01-2019 16:00:00 -1.1 C 87 % -2.98 C
1058 22-01-2019 16:05:00 -1.1 C 88 % -2.83 C
1059 22-01-2019 16:10:00 -1.1 C 87 % -2.98 C
1060 22-01-2019 16:15:00 -1.2 C 87 % -3.08 C
1061 22-01-2019 16:20:00 -1.2 C 87 % -3.08 C
1062 22-01-2019 16:25:00 -1.2 C 87 % -3.08 C
1063 22-01-2019 16:30:00 -1.2 C 87 % -3.08 C
1064 22-01-2019 16:35:00 -1.3 C 87 % -3.18 C
1065 22-01-2019 16:40:00 -1.3 C 87 % -3.18 C
1066 22-01-2019 16:45:00 -1.3 C 87 % -3.18 C
1067 22-01-2019 16:50:00 -1.3 C 87 % -3.18 C
1068 22-01-2019 16:55:00 -1.4 C 87 % -3.28 C
1069 22-01-2019 17:00:00 -1.5 C 88 % -3.22 C
1070 22-01-2019 17:05:00 -1.6 C 87 % -3.48 C
1071 22-01-2019 17:10:00 -1.8 C 87 % -3.67 C
1072 22-01-2019 17:15:00 -1.9 C 87 % -3.77 C
1073 22-01-2019 17:20:00 -2.1 C 88 % -3.82 C
1074 22-01-2019 17:25:00 -2.2 C 88 % -3.91 C
1075 22-01-2019 17:30:00 -2.3 C 88 % -4.01 C
Sensor: Nr:Datum:Temp:Feuchte:Taupunkt:
Aussen-T/F 1076 22-01-2019 17:35:00 -2.4 C 89 % -3.96 C
1077 22-01-2019 17:40:00 -2.6 C 89 % -4.16 C
1078 22-01-2019 17:45:00 -2.7 C 89 % -4.26 C
1079 22-01-2019 17:50:00 -2.8 C 89 % -4.36 C
1080 22-01-2019 17:55:00 -2.8 C 89 % -4.36 C
1081 22-01-2019 18:00:00 -2.9 C 90 % -4.31 C
1082 22-01-2019 18:05:00 -2.9 C 90 % -4.31 C
1083 22-01-2019 18:10:00 -2.9 C 90 % -4.31 C
1084 22-01-2019 18:15:00 -2.9 C 90 % -4.31 C
1085 22-01-2019 18:20:00 -2.9 C 91 % -4.16 C
1086 22-01-2019 18:25:00 -2.9 C 91 % -4.16 C
1087 22-01-2019 18:30:00 -2.9 C 91 % -4.16 C
1088 22-01-2019 18:35:00 -2.9 C 91 % -4.16 C
1089 22-01-2019 18:40:00 -2.8 C 91 % -4.06 C
1090 22-01-2019 18:45:00 -2.8 C 91 % -4.06 C
1091 22-01-2019 18:50:00 -2.8 C 91 % -4.06 C
1092 22-01-2019 18:55:00 -2.8 C 91 % -4.06 C
1093 22-01-2019 19:00:00 -2.8 C 91 % -4.06 C
1094 22-01-2019 19:05:00 -2.9 C 91 % -4.16 C
1095 22-01-2019 19:10:00 -2.9 C 91 % -4.16 C
1096 22-01-2019 19:15:00 -3 C 91 % -4.26 C
1097 22-01-2019 19:20:00 -3.1 C 91 % -4.36 C
1098 22-01-2019 19:25:00 -3.1 C 91 % -4.36 C
1099 22-01-2019 19:30:00 -3.2 C 91 % -4.46 C
1100 22-01-2019 19:35:00 -3.2 C 91 % -4.46 C
Sensor: Nr:Datum:Temp:Feuchte:Taupunkt:
Aussen-T/F 1101 22-01-2019 19:40:00 -3.2 C 91 % -4.46 C
1102 22-01-2019 19:45:00 -3.3 C 91 % -4.56 C
1103 22-01-2019 19:50:00 -3.3 C 91 % -4.56 C
1104 22-01-2019 19:55:00 -3.3 C 91 % -4.56 C
1105 22-01-2019 20:00:00 -3.3 C 92 % -4.41 C
1106 22-01-2019 20:05:00 -3.2 C 92 % -4.31 C
1107 22-01-2019 20:10:00 -3.2 C 92 % -4.31 C
1108 22-01-2019 20:15:00 -3.2 C 92 % -4.31 C
1109 22-01-2019 20:20:00 -3.2 C 92 % -4.31 C
1110 22-01-2019 20:25:00 -3.1 C 92 % -4.21 C
1111 22-01-2019 20:30:00 -3.1 C 92 % -4.21 C
1112 22-01-2019 20:35:00 -3.1 C 92 % -4.21 C
1113 22-01-2019 20:40:00 -3.1 C 92 % -4.21 C
1114 22-01-2019 20:45:00 -3.1 C 92 % -4.21 C
1115 22-01-2019 20:50:00 -3 C 93 % -3.97 C
1116 22-01-2019 20:55:00 -2.9 C 93 % -3.87 C
1117 22-01-2019 21:00:00 -2.9 C 92 % -4.01 C
1118 22-01-2019 21:05:00 -2.8 C 92 % -3.92 C
1119 22-01-2019 21:10:00 -2.8 C 92 % -3.92 C
1120 22-01-2019 21:15:00 -2.8 C 92 % -3.92 C
1121 22-01-2019 21:20:00 -2.7 C 92 % -3.82 C
1122 22-01-2019 21:25:00 -2.7 C 93 % -3.67 C
1123 22-01-2019 21:30:00 -2.7 C 93 % -3.67 C
1124 22-01-2019 21:35:00 -2.7 C 93 % -3.67 C
1125 22-01-2019 21:40:00 -2.6 C 93 % -3.57 C
Sensor: Nr:Datum:Temp:Feuchte:Taupunkt:
Aussen-T/F 1126 22-01-2019 21:45:00 -2.6 C 93 % -3.57 C
1127 22-01-2019 21:50:00 -2.5 C 93 % -3.47 C
1128 22-01-2019 21:55:00 -2.5 C 93 % -3.47 C
1129 22-01-2019 22:00:00 -2.4 C 93 % -3.37 C
1130 22-01-2019 22:05:00 -2.4 C 93 % -3.37 C
1131 22-01-2019 22:10:00 -2.4 C 93 % -3.37 C
1132 22-01-2019 22:15:00 -2.4 C 93 % -3.37 C
1133 22-01-2019 22:20:00 -2.4 C 93 % -3.37 C
1134 22-01-2019 22:25:00 -2.4 C 92 % -3.52 C
1135 22-01-2019 22:30:00 -2.4 C 92 % -3.52 C
1136 22-01-2019 22:35:00 -2.4 C 92 % -3.52 C
1137 22-01-2019 22:40:00 -2.4 C 92 % -3.52 C
1138 22-01-2019 22:45:00 -2.3 C 93 % -3.28 C
1139 22-01-2019 22:50:00 -2.3 C 92 % -3.42 C
1140 22-01-2019 22:55:00 -2.3 C 92 % -3.42 C
1141 22-01-2019 23:00:00 -2.2 C 92 % -3.32 C
1142 22-01-2019 23:05:00 -2.2 C 92 % -3.32 C
1143 22-01-2019 23:10:00 -2.2 C 92 % -3.32 C
1144 22-01-2019 23:15:00 -2.2 C 92 % -3.32 C
1145 22-01-2019 23:20:00 -2.2 C 92 % -3.32 C
1146 22-01-2019 23:25:00 -2.1 C 92 % -3.22 C
1147 22-01-2019 23:30:00 -2.1 C 92 % -3.22 C
1148 22-01-2019 23:35:00 -2.1 C 92 % -3.22 C
1149 22-01-2019 23:40:00 -2 C 92 % -3.12 C
1150 22-01-2019 23:45:00 -1.9 C 92 % -3.02 C
Sensor: Nr:Datum:Temp:Feuchte:Taupunkt:
Aussen-T/F 1151 22-01-2019 23:50:00 -1.9 C 91 % -3.17 C
1152 22-01-2019 23:55:00 -1.8 C 91 % -3.07 C
1153 23-01-2019 00:00:00 -1.8 C 91 % -3.07 C
1154 23-01-2019 00:05:00 -1.8 C 90 % -3.22 C
1155 23-01-2019 00:10:00 -1.7 C 90 % -3.12 C
1156 23-01-2019 00:15:00 -1.7 C 89 % -3.27 C
1157 23-01-2019 00:20:00 -1.7 C 89 % -3.27 C
1158 23-01-2019 00:25:00 -1.6 C 88 % -3.32 C
1159 23-01-2019 00:30:00 -1.6 C 88 % -3.32 C
1160 23-01-2019 00:35:00 -1.6 C 88 % -3.32 C
1161 23-01-2019 00:40:00 -1.6 C 88 % -3.32 C
1162 23-01-2019 00:45:00 -1.6 C 88 % -3.32 C
1163 23-01-2019 00:50:00 -1.6 C 89 % -3.17 C
1164 23-01-2019 00:55:00 -1.6 C 89 % -3.17 C
1165 23-01-2019 01:00:00 -1.6 C 89 % -3.17 C
1166 23-01-2019 01:05:00 -1.6 C 89 % -3.17 C
1167 23-01-2019 01:10:00 -1.6 C 89 % -3.17 C
1168 23-01-2019 01:15:00 -1.6 C 89 % -3.17 C
1169 23-01-2019 01:20:00 -1.6 C 89 % -3.17 C
1170 23-01-2019 01:25:00 -1.6 C 90 % -3.02 C
1171 23-01-2019 01:30:00 -1.6 C 90 % -3.02 C
1172 23-01-2019 01:35:00 -1.6 C 90 % -3.02 C
1173 23-01-2019 01:40:00 -1.7 C 90 % -3.12 C
1174 23-01-2019 01:45:00 -1.7 C 90 % -3.12 C
1175 23-01-2019 01:50:00 -1.7 C 90 % -3.12 C
Sensor: Nr:Datum:Temp:Feuchte:Taupunkt:
Aussen-T/F 1176 23-01-2019 01:55:00 -1.7 C 91 % -2.97 C
1177 23-01-2019 02:00:00 -1.7 C 91 % -2.97 C
1178 23-01-2019 02:05:00 -1.7 C 91 % -2.97 C
1179 23-01-2019 02:10:00 -1.7 C 91 % -2.97 C
1180 23-01-2019 02:15:00 -1.7 C 91 % -2.97 C
1181 23-01-2019 02:20:00 -1.7 C 91 % -2.97 C
1182 23-01-2019 02:25:00 -1.7 C 91 % -2.97 C
1183 23-01-2019 02:30:00 -1.7 C 91 % -2.97 C
1184 23-01-2019 02:35:00 -1.7 C 91 % -2.97 C
1185 23-01-2019 02:40:00 -1.7 C 91 % -2.97 C
1186 23-01-2019 02:45:00 -1.7 C 91 % -2.97 C
1187 23-01-2019 02:50:00 -1.7 C 91 % -2.97 C
1188 23-01-2019 02:55:00 -1.7 C 92 % -2.83 C
1189 23-01-2019 03:00:00 -1.7 C 92 % -2.83 C
1190 23-01-2019 03:05:00 -1.7 C 92 % -2.83 C
1191 23-01-2019 03:10:00 -1.7 C 92 % -2.83 C
1192 23-01-2019 03:15:00 -1.8 C 92 % -2.92 C
1193 23-01-2019 03:20:00 -1.8 C 92 % -2.92 C
1194 23-01-2019 03:25:00 -1.8 C 92 % -2.92 C
1195 23-01-2019 03:30:00 -1.8 C 92 % -2.92 C
1196 23-01-2019 03:35:00 -1.8 C 92 % -2.92 C
1197 23-01-2019 03:40:00 -1.8 C 92 % -2.92 C
1198 23-01-2019 03:45:00 -1.8 C 93 % -2.78 C
1199 23-01-2019 03:50:00 -1.8 C 93 % -2.78 C
1200 23-01-2019 03:55:00 -1.8 C 92 % -2.92 C
Sensor: Nr:Datum:Temp:Feuchte:Taupunkt:
Aussen-T/F 1201 23-01-2019 04:00:00 -1.8 C 93 % -2.78 C
1202 23-01-2019 04:05:00 -1.8 C 93 % -2.78 C
1203 23-01-2019 04:10:00 -1.8 C 93 % -2.78 C
1204 23-01-2019 04:15:00 -1.8 C 93 % -2.78 C
1205 23-01-2019 04:20:00 -1.8 C 93 % -2.78 C
1206 23-01-2019 04:25:00 -1.8 C 93 % -2.78 C
1207 23-01-2019 04:30:00 -1.8 C 93 % -2.78 C
1208 23-01-2019 04:35:00 -1.8 C 93 % -2.78 C
1209 23-01-2019 04:40:00 -1.8 C 93 % -2.78 C
1210 23-01-2019 04:45:00 -1.8 C 93 % -2.78 C
1211 23-01-2019 04:50:00 -1.9 C 93 % -2.88 C
1212 23-01-2019 04:55:00 -1.9 C 93 % -2.88 C
1213 23-01-2019 05:00:00 -1.9 C 93 % -2.88 C
1214 23-01-2019 05:05:00 -1.9 C 93 % -2.88 C
1215 23-01-2019 05:10:00 -1.9 C 93 % -2.88 C
1216 23-01-2019 05:15:00 -2 C 93 % -2.98 C
1217 23-01-2019 05:20:00 -2 C 93 % -2.98 C
1218 23-01-2019 05:25:00 -2 C 93 % -2.98 C
1219 23-01-2019 05:30:00 -2.1 C 94 % -2.93 C
1220 23-01-2019 05:35:00 -2.1 C 93 % -3.08 C
1221 23-01-2019 05:40:00 -2.1 C 93 % -3.08 C
1222 23-01-2019 05:45:00 -2.1 C 93 % -3.08 C
1223 23-01-2019 05:50:00 -2.1 C 94 % -2.93 C
1224 23-01-2019 05:55:00 -2.1 C 94 % -2.93 C
1225 23-01-2019 06:00:00 -2.1 C 94 % -2.93 C
Sensor: Nr:Datum:Temp:Feuchte:Taupunkt:
Aussen-T/F 1226 23-01-2019 06:05:00 -2.1 C 94 % -2.93 C
1227 23-01-2019 06:10:00 -2.2 C 94 % -3.03 C
1228 23-01-2019 06:15:00 -2.2 C 94 % -3.03 C
1229 23-01-2019 06:20:00 -2.2 C 94 % -3.03 C
1230 23-01-2019 06:25:00 -2.2 C 94 % -3.03 C
1231 23-01-2019 06:30:00 -2.2 C 94 % -3.03 C
1232 23-01-2019 06:35:00 -2.2 C 94 % -3.03 C
1233 23-01-2019 06:40:00 -2.2 C 94 % -3.03 C
1234 23-01-2019 06:45:00 -2.2 C 94 % -3.03 C
1235 23-01-2019 06:50:00 -2.2 C 94 % -3.03 C
1236 23-01-2019 06:55:00 -2.2 C 94 % -3.03 C
1237 23-01-2019 07:00:00 -2.2 C 94 % -3.03 C
1238 23-01-2019 07:05:00 -2.2 C 94 % -3.03 C
1239 23-01-2019 07:10:00 -2.2 C 94 % -3.03 C
1240 23-01-2019 07:15:00 -2.3 C 94 % -3.13 C
1241 23-01-2019 07:20:00 -2.3 C 94 % -3.13 C
1242 23-01-2019 07:25:00 -2.3 C 94 % -3.13 C
1243 23-01-2019 07:30:00 -2.3 C 94 % -3.13 C
1244 23-01-2019 07:35:00 -2.3 C 94 % -3.13 C
1245 23-01-2019 07:40:00 -2.3 C 94 % -3.13 C
1246 23-01-2019 07:45:00 -2.4 C 94 % -3.23 C
1247 23-01-2019 07:50:00 -2.4 C 94 % -3.23 C
1248 23-01-2019 07:55:00 -2.4 C 94 % -3.23 C
1249 23-01-2019 08:00:00 -2.4 C 94 % -3.23 C
1250 23-01-2019 08:05:00 -2.4 C 94 % -3.23 C
Sensor: Nr:Datum:Temp:Feuchte:Taupunkt:
Aussen-T/F 1251 23-01-2019 08:10:00 -2.4 C 94 % -3.23 C
1252 23-01-2019 08:15:00 -2.4 C 94 % -3.23 C
1253 23-01-2019 08:20:00 -2.4 C 94 % -3.23 C
1254 23-01-2019 08:25:00 -2.4 C 94 % -3.23 C
1255 23-01-2019 08:30:00 -2.4 C 94 % -3.23 C
1256 23-01-2019 08:35:00 -2.4 C 94 % -3.23 C
1257 23-01-2019 08:40:00 -2.4 C 94 % -3.23 C
1258 23-01-2019 08:45:00 -2.4 C 94 % -3.23 C
1259 23-01-2019 08:50:00 -2.4 C 94 % -3.23 C
1260 23-01-2019 08:55:00 -2.4 C 94 % -3.23 C
1261 23-01-2019 09:00:00 -2.4 C 94 % -3.23 C
1262 23-01-2019 09:05:00 -2.4 C 94 % -3.23 C
1263 23-01-2019 09:10:00 -2.4 C 94 % -3.23 C
1264 23-01-2019 09:15:00 -2.3 C 94 % -3.13 C
1265 23-01-2019 09:20:00 -2.3 C 94 % -3.13 C
1266 23-01-2019 09:25:00 -2.3 C 95 % -2.99 C
1267 23-01-2019 09:30:00 -2.3 C 95 % -2.99 C
1268 23-01-2019 09:35:00 -2.3 C 95 % -2.99 C
1269 23-01-2019 09:40:00 -2.2 C 95 % -2.89 C
1270 23-01-2019 09:45:00 -2.2 C 95 % -2.89 C
1271 23-01-2019 09:50:00 -2.1 C 95 % -2.79 C
1272 23-01-2019 09:55:00 -2.1 C 95 % -2.79 C
1273 23-01-2019 10:00:00 -2 C 95 % -2.69 C
1274 23-01-2019 10:05:00 -1.9 C 94 % -2.73 C
1275 23-01-2019 10:10:00 -1.9 C 94 % -2.73 C
Sensor: Nr:Datum:Temp:Feuchte:Taupunkt:
Aussen-T/F 1276 23-01-2019 10:15:00 -1.8 C 94 % -2.64 C
1277 23-01-2019 10:20:00 -1.8 C 94 % -2.64 C
1278 23-01-2019 10:25:00 -1.8 C 94 % -2.64 C
1279 23-01-2019 10:30:00 -1.7 C 94 % -2.54 C
1280 23-01-2019 10:35:00 -1.7 C 94 % -2.54 C
1281 23-01-2019 10:40:00 -1.7 C 94 % -2.54 C
1282 23-01-2019 10:45:00 -1.7 C 94 % -2.54 C
1283 23-01-2019 10:50:00 -1.6 C 94 % -2.44 C
1284 23-01-2019 10:55:00 -1.5 C 94 % -2.34 C
1285 23-01-2019 11:00:00 -1.4 C 94 % -2.24 C
1286 23-01-2019 11:05:00 -1.4 C 93 % -2.38 C
1287 23-01-2019 11:10:00 -1.4 C 93 % -2.38 C
1288 23-01-2019 11:15:00 -1.3 C 93 % -2.28 C
1289 23-01-2019 11:20:00 -1.3 C 92 % -2.43 C
1290 23-01-2019 11:25:00 -1.3 C 92 % -2.43 C
1291 23-01-2019 11:30:00 -1.3 C 92 % -2.43 C
1292 23-01-2019 11:35:00 -1.2 C 92 % -2.33 C
1293 23-01-2019 11:40:00 -1.2 C 92 % -2.33 C
1294 23-01-2019 11:45:00 -1.1 C 91 % -2.38 C
1295 23-01-2019 11:50:00 -1.1 C 91 % -2.38 C
1296 23-01-2019 11:55:00 -1 C 90 % -2.43 C
1297 23-01-2019 12:00:00 -0.9 C 90 % -2.33 C
1298 23-01-2019 12:05:00 -0.8 C 90 % -2.23 C
1299 23-01-2019 12:10:00 -0.8 C 89 % -2.38 C
1300 23-01-2019 12:15:00 -0.8 C 88 % -2.53 C
Sensor: Nr:Datum:Temp:Feuchte:Taupunkt:
Aussen-T/F 1301 23-01-2019 12:20:00 -0.8 C 88 % -2.53 C
1302 23-01-2019 12:25:00 -0.8 C 87 % -2.69 C
1303 23-01-2019 12:30:00 -0.7 C 87 % -2.59 C
1304 23-01-2019 12:35:00 -0.7 C 87 % -2.59 C
1305 23-01-2019 12:40:00 -0.7 C 87 % -2.59 C
1306 23-01-2019 12:45:00 -0.7 C 85 % -2.9 C
1307 23-01-2019 12:50:00 -0.7 C 85 % -2.9 C
1308 23-01-2019 12:55:00 -0.7 C 86 % -2.74 C
1309 23-01-2019 13:00:00 -0.7 C 86 % -2.74 C
1310 23-01-2019 13:05:00 -0.7 C 86 % -2.74 C
1311 23-01-2019 13:10:00 -0.7 C 86 % -2.74 C
1312 23-01-2019 13:15:00 -0.7 C 86 % -2.74 C
1313 23-01-2019 13:20:00 -0.7 C 85 % -2.9 C
1314 23-01-2019 13:25:00 -0.7 C 85 % -2.9 C
1315 23-01-2019 13:30:00 -0.7 C 84 % -3.06 C
1316 23-01-2019 13:35:00 -0.7 C 85 % -2.9 C
1317 23-01-2019 13:40:00 -0.7 C 84 % -3.06 C
1318 23-01-2019 13:45:00 -0.7 C 84 % -3.06 C
1319 23-01-2019 13:50:00 -0.7 C 85 % -2.9 C
1320 23-01-2019 13:55:00 -0.7 C 84 % -3.06 C
1321 23-01-2019 14:00:00 -0.7 C 84 % -3.06 C
1322 23-01-2019 14:05:00 -0.6 C 84 % -2.96 C
1323 23-01-2019 14:10:00 -0.7 C 84 % -3.06 C
1324 23-01-2019 14:15:00 -0.7 C 83 % -3.22 C
1325 23-01-2019 14:20:00 -0.7 C 84 % -3.06 C
Sensor: Nr:Datum:Temp:Feuchte:Taupunkt:
Aussen-T/F 1326 23-01-2019 14:25:00 -0.7 C 84 % -3.06 C
1327 23-01-2019 14:30:00 -0.7 C 84 % -3.06 C
1328 23-01-2019 14:35:00 -0.7 C 83 % -3.22 C
1329 23-01-2019 14:40:00 -0.7 C 83 % -3.22 C
1330 23-01-2019 14:45:00 -0.8 C 83 % -3.32 C
1331 23-01-2019 14:50:00 -0.8 C 83 % -3.32 C
1332 23-01-2019 14:55:00 -0.8 C 84 % -3.16 C
1333 23-01-2019 15:00:00 -0.8 C 83 % -3.32 C
1334 23-01-2019 15:05:00 -0.8 C 84 % -3.16 C
1335 23-01-2019 15:10:00 -0.8 C 83 % -3.32 C
1336 23-01-2019 15:15:00 -0.8 C 84 % -3.16 C
1337 23-01-2019 15:20:00 -0.8 C 83 % -3.32 C
1338 23-01-2019 15:25:00 -0.8 C 82 % -3.48 C
1339 23-01-2019 15:30:00 -0.8 C 83 % -3.32 C
1340 23-01-2019 15:35:00 -0.8 C 83 % -3.32 C
1341 23-01-2019 15:40:00 -0.8 C 83 % -3.32 C
1342 23-01-2019 15:45:00 -0.8 C 83 % -3.32 C
1343 23-01-2019 15:50:00 -0.8 C 82 % -3.48 C
1344 23-01-2019 15:55:00 -0.8 C 83 % -3.32 C
1345 23-01-2019 16:00:00 -0.8 C 83 % -3.32 C
1346 23-01-2019 16:05:00 -0.8 C 83 % -3.32 C
1347 23-01-2019 16:10:00 -0.8 C 83 % -3.32 C
1348 23-01-2019 16:15:00 -0.8 C 84 % -3.16 C
1349 23-01-2019 16:20:00 -0.8 C 84 % -3.16 C
1350 23-01-2019 16:25:00 -0.8 C 84 % -3.16 C
Sensor: Nr:Datum:Temp:Feuchte:Taupunkt:
Aussen-T/F 1351 23-01-2019 16:30:00 -0.8 C 84 % -3.16 C
1352 23-01-2019 16:35:00 -0.8 C 84 % -3.16 C
1353 23-01-2019 16:40:00 -0.9 C 84 % -3.26 C
1354 23-01-2019 16:45:00 -0.9 C 83 % -3.42 C
1355 23-01-2019 16:50:00 -0.9 C 84 % -3.26 C
1356 23-01-2019 16:55:00 -0.9 C 84 % -3.26 C
1357 23-01-2019 17:00:00 -0.9 C 85 % -3.1 C
1358 23-01-2019 17:05:00 -1 C 85 % -3.2 C
1359 23-01-2019 17:10:00 -1.1 C 85 % -3.29 C
1360 23-01-2019 17:15:00 -1.1 C 85 % -3.29 C
1361 23-01-2019 17:20:00 -1.1 C 86 % -3.14 C
1362 23-01-2019 17:25:00 -1.1 C 86 % -3.14 C
1363 23-01-2019 17:30:00 -1.2 C 85 % -3.39 C
1364 23-01-2019 17:35:00 -1.2 C 85 % -3.39 C
1365 23-01-2019 17:40:00 -1.2 C 85 % -3.39 C
1366 23-01-2019 17:45:00 -1.2 C 85 % -3.39 C
1367 23-01-2019 17:50:00 -1.2 C 86 % -3.24 C
1368 23-01-2019 17:55:00 -1.3 C 86 % -3.33 C
1369 23-01-2019 18:00:00 -1.3 C 87 % -3.18 C
1370 23-01-2019 18:05:00 -1.3 C 87 % -3.18 C
1371 23-01-2019 18:10:00 -1.3 C 87 % -3.18 C
1372 23-01-2019 18:15:00 -1.3 C 87 % -3.18 C
1373 23-01-2019 18:20:00 -1.3 C 87 % -3.18 C
1374 23-01-2019 18:25:00 -1.4 C 86 % -3.43 C
1375 23-01-2019 18:30:00 -1.4 C 87 % -3.28 C
Sensor: Nr:Datum:Temp:Feuchte:Taupunkt:
Aussen-T/F 1376 23-01-2019 18:35:00 -1.4 C 87 % -3.28 C
1377 23-01-2019 18:40:00 -1.4 C 87 % -3.28 C
1378 23-01-2019 18:45:00 -1.4 C 87 % -3.28 C
1379 23-01-2019 18:50:00 -1.5 C 87 % -3.38 C
1380 23-01-2019 18:55:00 -1.5 C 87 % -3.38 C
1381 23-01-2019 19:00:00 -1.5 C 87 % -3.38 C
1382 23-01-2019 19:05:00 -1.5 C 87 % -3.38 C
1383 23-01-2019 19:10:00 -1.6 C 87 % -3.48 C
1384 23-01-2019 19:15:00 -1.6 C 86 % -3.63 C
1385 23-01-2019 19:20:00 -1.5 C 85 % -3.69 C
1386 23-01-2019 19:25:00 -1.4 C 85 % -3.59 C
1387 23-01-2019 19:30:00 -1.4 C 86 % -3.43 C
1388 23-01-2019 19:35:00 -1.4 C 86 % -3.43 C
1389 23-01-2019 19:40:00 -1.4 C 86 % -3.43 C
1390 23-01-2019 19:45:00 -1.5 C 86 % -3.53 C
1391 23-01-2019 19:50:00 -1.5 C 87 % -3.38 C
1392 23-01-2019 19:55:00 -1.6 C 87 % -3.48 C
1393 23-01-2019 20:00:00 -1.6 C 87 % -3.48 C
1394 23-01-2019 20:05:00 -1.6 C 87 % -3.48 C
1395 23-01-2019 20:10:00 -1.6 C 87 % -3.48 C
1396 23-01-2019 20:15:00 -1.6 C 88 % -3.32 C
1397 23-01-2019 20:20:00 -1.7 C 88 % -3.42 C
1398 23-01-2019 20:25:00 -1.7 C 88 % -3.42 C
1399 23-01-2019 20:30:00 -1.7 C 88 % -3.42 C
1400 23-01-2019 20:35:00 -1.7 C 88 % -3.42 C
Sensor: Nr:Datum:Temp:Feuchte:Taupunkt:
Aussen-T/F 1401 23-01-2019 20:40:00 -1.8 C 88 % -3.52 C
1402 23-01-2019 20:45:00 -1.8 C 88 % -3.52 C
1403 23-01-2019 20:50:00 -1.8 C 89 % -3.37 C
1404 23-01-2019 20:55:00 -1.8 C 88 % -3.52 C
1405 23-01-2019 21:00:00 -1.8 C 88 % -3.52 C
1406 23-01-2019 21:05:00 -1.8 C 88 % -3.52 C
1407 23-01-2019 21:10:00 -1.8 C 88 % -3.52 C
1408 23-01-2019 21:15:00 -1.8 C 88 % -3.52 C
1409 23-01-2019 21:20:00 -1.8 C 88 % -3.52 C
1410 23-01-2019 21:25:00 -1.8 C 88 % -3.52 C
1411 23-01-2019 21:30:00 -1.8 C 88 % -3.52 C
1412 23-01-2019 21:35:00 -1.8 C 88 % -3.52 C
1413 23-01-2019 21:40:00 -1.8 C 89 % -3.37 C
1414 23-01-2019 21:45:00 -1.8 C 89 % -3.37 C
1415 23-01-2019 21:50:00 -1.9 C 89 % -3.47 C
1416 23-01-2019 21:55:00 -1.9 C 89 % -3.47 C
1417 23-01-2019 22:00:00 -1.9 C 88 % -3.62 C
1418 23-01-2019 22:05:00 -1.9 C 88 % -3.62 C
1419 23-01-2019 22:10:00 -1.9 C 88 % -3.62 C
1420 23-01-2019 22:15:00 -1.9 C 88 % -3.62 C
1421 23-01-2019 22:20:00 -1.9 C 88 % -3.62 C
1422 23-01-2019 22:25:00 -1.8 C 89 % -3.37 C
1423 23-01-2019 22:30:00 -1.8 C 88 % -3.52 C
1424 23-01-2019 22:35:00 -1.8 C 89 % -3.37 C
1425 23-01-2019 22:40:00 -1.9 C 89 % -3.47 C
Sensor: Nr:Datum:Temp:Feuchte:Taupunkt:
Aussen-T/F 1426 23-01-2019 22:45:00 -1.9 C 89 % -3.47 C
1427 23-01-2019 22:50:00 -1.9 C 89 % -3.47 C
1428 23-01-2019 22:55:00 -1.9 C 89 % -3.47 C
1429 23-01-2019 23:00:00 -1.9 C 89 % -3.47 C
1430 23-01-2019 23:05:00 -1.9 C 89 % -3.47 C
1431 23-01-2019 23:10:00 -1.8 C 89 % -3.37 C
1432 23-01-2019 23:15:00 -1.9 C 89 % -3.47 C
1433 23-01-2019 23:20:00 -1.9 C 89 % -3.47 C
1434 23-01-2019 23:25:00 -1.9 C 89 % -3.47 C
1435 23-01-2019 23:30:00 -1.9 C 89 % -3.47 C
1436 23-01-2019 23:35:00 -1.8 C 89 % -3.37 C
1437 23-01-2019 23:40:00 -1.9 C 89 % -3.47 C
1438 23-01-2019 23:45:00 -1.9 C 89 % -3.47 C
1439 23-01-2019 23:50:00 -1.9 C 89 % -3.47 C
1440 23-01-2019 23:55:00 -1.9 C 89 % -3.47 C
1441 24-01-2019 00:00:00 -1.9 C 89 % -3.47 C
1442 24-01-2019 00:05:00 -1.9 C 89 % -3.47 C
1443 24-01-2019 00:10:00 -1.9 C 89 % -3.47 C
1444 24-01-2019 00:15:00 -1.8 C 89 % -3.37 C
1445 24-01-2019 00:20:00 -1.9 C 88 % -3.62 C
1446 24-01-2019 00:25:00 -1.8 C 88 % -3.52 C
1447 24-01-2019 00:30:00 -1.8 C 88 % -3.52 C
1448 24-01-2019 00:35:00 -1.8 C 88 % -3.52 C
1449 24-01-2019 00:40:00 -1.8 C 88 % -3.52 C
1450 24-01-2019 00:45:00 -1.8 C 87 % -3.67 C
Sensor: Nr:Datum:Temp:Feuchte:Taupunkt:
Aussen-T/F 1451 24-01-2019 00:50:00 -1.8 C 87 % -3.67 C
1452 24-01-2019 00:55:00 -1.8 C 86 % -3.83 C
1453 24-01-2019 01:00:00 -1.7 C 86 % -3.73 C
1454 24-01-2019 01:05:00 -1.7 C 85 % -3.88 C
1455 24-01-2019 01:10:00 -1.7 C 85 % -3.88 C
1456 24-01-2019 01:15:00 -1.7 C 84 % -4.04 C
1457 24-01-2019 01:20:00 -1.7 C 83 % -4.2 C
1458 24-01-2019 01:25:00 -1.6 C 83 % -4.1 C
1459 24-01-2019 01:30:00 -1.6 C 83 % -4.1 C
1460 24-01-2019 01:35:00 -1.6 C 83 % -4.1 C
1461 24-01-2019 01:40:00 -1.6 C 82 % -4.26 C
1462 24-01-2019 01:45:00 -1.6 C 82 % -4.26 C
1463 24-01-2019 01:50:00 -1.6 C 82 % -4.26 C
1464 24-01-2019 01:55:00 -1.6 C 82 % -4.26 C
1465 24-01-2019 02:00:00 -1.6 C 82 % -4.26 C
1466 24-01-2019 02:05:00 -1.6 C 82 % -4.26 C
1467 24-01-2019 02:10:00 -1.6 C 82 % -4.26 C
1468 24-01-2019 02:15:00 -1.6 C 83 % -4.1 C
1469 24-01-2019 02:20:00 -1.6 C 83 % -4.1 C
1470 24-01-2019 02:25:00 -1.7 C 82 % -4.36 C
1471 24-01-2019 02:30:00 -1.7 C 82 % -4.36 C
1472 24-01-2019 02:35:00 -1.7 C 82 % -4.36 C
1473 24-01-2019 02:40:00 -1.7 C 82 % -4.36 C
1474 24-01-2019 02:45:00 -1.7 C 82 % -4.36 C
1475 24-01-2019 02:50:00 -1.7 C 82 % -4.36 C
Sensor: Nr:Datum:Temp:Feuchte:Taupunkt:
Aussen-T/F 1476 24-01-2019 02:55:00 -1.7 C 82 % -4.36 C
1477 24-01-2019 03:00:00 -1.7 C 83 % -4.2 C
1478 24-01-2019 03:05:00 -1.7 C 82 % -4.36 C
1479 24-01-2019 03:10:00 -1.7 C 82 % -4.36 C
1480 24-01-2019 03:15:00 -1.7 C 83 % -4.2 C
1481 24-01-2019 03:20:00 -1.7 C 83 % -4.2 C
1482 24-01-2019 03:25:00 -1.7 C 82 % -4.36 C
1483 24-01-2019 03:30:00 -1.7 C 82 % -4.36 C
1484 24-01-2019 03:35:00 -1.7 C 83 % -4.2 C
1485 24-01-2019 03:40:00 -1.7 C 83 % -4.2 C
1486 24-01-2019 03:45:00 -1.8 C 83 % -4.3 C
1487 24-01-2019 03:50:00 -1.8 C 83 % -4.3 C
1488 24-01-2019 03:55:00 -1.8 C 83 % -4.3 C
1489 24-01-2019 04:00:00 -1.8 C 83 % -4.3 C
1490 24-01-2019 04:05:00 -1.8 C 82 % -4.46 C
1491 24-01-2019 04:10:00 -1.8 C 83 % -4.3 C
1492 24-01-2019 04:15:00 -1.8 C 83 % -4.3 C
1493 24-01-2019 04:20:00 -1.8 C 83 % -4.3 C
1494 24-01-2019 04:25:00 -1.8 C 83 % -4.3 C
1495 24-01-2019 04:30:00 -1.8 C 83 % -4.3 C
1496 24-01-2019 04:35:00 -1.8 C 82 % -4.46 C
1497 24-01-2019 04:40:00 -1.9 C 83 % -4.4 C
1498 24-01-2019 04:45:00 -1.9 C 83 % -4.4 C
1499 24-01-2019 04:50:00 -1.9 C 83 % -4.4 C
1500 24-01-2019 04:55:00 -1.9 C 83 % -4.4 C
Sensor: Nr:Datum:Temp:Feuchte:Taupunkt:
Aussen-T/F 1501 24-01-2019 05:00:00 -1.9 C 83 % -4.4 C
1502 24-01-2019 05:05:00 -1.9 C 83 % -4.4 C
1503 24-01-2019 05:10:00 -1.9 C 83 % -4.4 C
1504 24-01-2019 05:15:00 -1.9 C 83 % -4.4 C
1505 24-01-2019 05:20:00 -1.9 C 83 % -4.4 C
1506 24-01-2019 05:25:00 -1.9 C 83 % -4.4 C
1507 24-01-2019 05:30:00 -1.9 C 82 % -4.56 C
1508 24-01-2019 05:35:00 -1.9 C 83 % -4.4 C
1509 24-01-2019 05:40:00 -1.9 C 82 % -4.56 C
1510 24-01-2019 05:45:00 -1.9 C 83 % -4.4 C
1511 24-01-2019 05:50:00 -1.9 C 82 % -4.56 C
1512 24-01-2019 05:55:00 -1.9 C 82 % -4.56 C
1513 24-01-2019 06:00:00 -1.9 C 83 % -4.4 C
1514 24-01-2019 06:05:00 -1.9 C 83 % -4.4 C
1515 24-01-2019 06:10:00 -2 C 83 % -4.49 C
1516 24-01-2019 06:15:00 -2 C 84 % -4.34 C
1517 24-01-2019 06:20:00 -2 C 84 % -4.34 C
1518 24-01-2019 06:25:00 -2 C 84 % -4.34 C
1519 24-01-2019 06:30:00 -2 C 83 % -4.49 C
1520 24-01-2019 06:35:00 -2.1 C 83 % -4.59 C
1521 24-01-2019 06:40:00 -2.1 C 83 % -4.59 C
1522 24-01-2019 06:45:00 -2 C 83 % -4.49 C
1523 24-01-2019 06:50:00 -2.1 C 83 % -4.59 C
1524 24-01-2019 06:55:00 -2.1 C 83 % -4.59 C
1525 24-01-2019 07:00:00 -2.1 C 83 % -4.59 C
Sensor: Nr:Datum:Temp:Feuchte:Taupunkt:
Aussen-T/F 1526 24-01-2019 07:05:00 -2.1 C 83 % -4.59 C
1527 24-01-2019 07:10:00 -2.1 C 83 % -4.59 C
1528 24-01-2019 07:15:00 -2.1 C 83 % -4.59 C
1529 24-01-2019 07:20:00 -2.1 C 83 % -4.59 C
1530 24-01-2019 07:25:00 -2.1 C 83 % -4.59 C
1531 24-01-2019 07:30:00 -2.1 C 84 % -4.43 C
1532 24-01-2019 07:35:00 -2.1 C 83 % -4.59 C
1533 24-01-2019 07:40:00 -2.1 C 83 % -4.59 C
1534 24-01-2019 07:45:00 -2.1 C 84 % -4.43 C
1535 24-01-2019 07:50:00 -2.1 C 83 % -4.59 C
1536 24-01-2019 07:55:00 -2.1 C 84 % -4.43 C
1537 24-01-2019 08:00:00 -2.1 C 83 % -4.59 C
1538 24-01-2019 08:05:00 -2.1 C 84 % -4.43 C
1539 24-01-2019 08:10:00 -2.1 C 84 % -4.43 C
1540 24-01-2019 08:15:00 -2.1 C 84 % -4.43 C
1541 24-01-2019 08:20:00 -2.2 C 83 % -4.69 C
1542 24-01-2019 08:25:00 -2.2 C 84 % -4.53 C
1543 24-01-2019 08:30:00 -2.2 C 83 % -4.69 C
1544 24-01-2019 08:35:00 -2.2 C 83 % -4.69 C
1545 24-01-2019 08:40:00 -2.2 C 84 % -4.53 C
1546 24-01-2019 08:45:00 -2.2 C 84 % -4.53 C
1547 24-01-2019 08:50:00 -2.2 C 84 % -4.53 C
1548 24-01-2019 08:55:00 -2.2 C 84 % -4.53 C
1549 24-01-2019 09:00:00 -2.2 C 84 % -4.53 C
1550 24-01-2019 09:05:00 -2.2 C 84 % -4.53 C
Sensor: Nr:Datum:Temp:Feuchte:Taupunkt:
Aussen-T/F 1551 24-01-2019 09:10:00 -2.2 C 83 % -4.69 C
1552 24-01-2019 09:15:00 -2.2 C 84 % -4.53 C
1553 24-01-2019 09:20:00 -2.2 C 83 % -4.69 C
1554 24-01-2019 09:25:00 -2.2 C 83 % -4.69 C
1555 24-01-2019 09:30:00 -2.2 C 83 % -4.69 C
1556 24-01-2019 09:35:00 -2.1 C 83 % -4.59 C
1557 24-01-2019 09:40:00 -2.1 C 83 % -4.59 C
1558 24-01-2019 09:45:00 -2.1 C 84 % -4.43 C
1559 24-01-2019 09:50:00 -2 C 83 % -4.49 C
1560 24-01-2019 09:55:00 -2 C 83 % -4.49 C
1561 24-01-2019 10:00:00 -2 C 83 % -4.49 C
1562 24-01-2019 10:05:00 -1.9 C 83 % -4.4 C
1563 24-01-2019 10:10:00 -1.9 C 83 % -4.4 C
1564 24-01-2019 10:15:00 -1.9 C 83 % -4.4 C
1565 24-01-2019 10:20:00 -1.9 C 83 % -4.4 C
1566 24-01-2019 10:25:00 -1.9 C 83 % -4.4 C
1567 24-01-2019 10:30:00 -1.9 C 83 % -4.4 C
1568 24-01-2019 10:35:00 -1.9 C 84 % -4.24 C
1569 24-01-2019 10:40:00 -1.9 C 84 % -4.24 C
1570 24-01-2019 10:45:00 -1.9 C 85 % -4.08 C
1571 24-01-2019 10:50:00 -1.9 C 85 % -4.08 C
1572 24-01-2019 10:55:00 -1.9 C 85 % -4.08 C
1573 24-01-2019 11:00:00 -1.9 C 86 % -3.92 C
1574 24-01-2019 11:05:00 -1.9 C 87 % -3.77 C
1575 24-01-2019 11:10:00 -1.9 C 87 % -3.77 C
Sensor: Nr:Datum:Temp:Feuchte:Taupunkt:
Aussen-T/F 1576 24-01-2019 11:15:00 -2 C 88 % -3.72 C
1577 24-01-2019 11:20:00 -2.1 C 88 % -3.82 C
1578 24-01-2019 11:25:00 -2.1 C 89 % -3.66 C
1579 24-01-2019 11:30:00 -2.1 C 89 % -3.66 C
1580 24-01-2019 11:35:00 -2.1 C 89 % -3.66 C
1581 24-01-2019 11:40:00 -2.1 C 89 % -3.66 C
1582 24-01-2019 11:45:00 -2.2 C 89 % -3.76 C
1583 24-01-2019 11:50:00 -2.2 C 90 % -3.61 C
1584 24-01-2019 11:55:00 -2.1 C 90 % -3.52 C
1585 24-01-2019 12:00:00 -2.1 C 90 % -3.52 C
1586 24-01-2019 12:05:00 -2.1 C 90 % -3.52 C
1587 24-01-2019 12:10:00 -2.1 C 89 % -3.66 C
1588 24-01-2019 12:15:00 -2.1 C 89 % -3.66 C
1589 24-01-2019 12:20:00 -2 C 89 % -3.57 C
1590 24-01-2019 12:25:00 -1.9 C 89 % -3.47 C
1591 24-01-2019 12:30:00 -1.8 C 88 % -3.52 C
1592 24-01-2019 12:35:00 -1.8 C 88 % -3.52 C
1593 24-01-2019 12:40:00 -1.7 C 88 % -3.42 C
1594 24-01-2019 12:45:00 -1.6 C 88 % -3.32 C
1595 24-01-2019 12:50:00 -1.6 C 88 % -3.32 C
1596 24-01-2019 12:55:00 -1.6 C 87 % -3.48 C
1597 24-01-2019 13:00:00 -1.6 C 87 % -3.48 C
1598 24-01-2019 13:05:00 -1.5 C 88 % -3.22 C
1599 24-01-2019 13:10:00 -1.4 C 87 % -3.28 C
1600 24-01-2019 13:15:00 -1.4 C 86 % -3.43 C
Sensor: Nr:Datum:Temp:Feuchte:Taupunkt:
Aussen-T/F 1601 24-01-2019 13:20:00 -1.4 C 86 % -3.43 C
1602 24-01-2019 13:25:00 -1.3 C 85 % -3.49 C
1603 24-01-2019 13:30:00 -1.3 C 85 % -3.49 C
1604 24-01-2019 13:35:00 -1.3 C 84 % -3.65 C
1605 24-01-2019 13:40:00 -1.3 C 84 % -3.65 C
1606 24-01-2019 13:45:00 -1.2 C 84 % -3.55 C
1607 24-01-2019 13:50:00 -1.2 C 84 % -3.55 C
1608 24-01-2019 13:55:00 -1.2 C 83 % -3.71 C
1609 24-01-2019 14:00:00 -1.2 C 83 % -3.71 C
1610 24-01-2019 14:05:00 -1.2 C 83 % -3.71 C
1611 24-01-2019 14:10:00 -1.1 C 83 % -3.61 C
1612 24-01-2019 14:15:00 -1.2 C 82 % -3.87 C
1613 24-01-2019 14:20:00 -1.2 C 82 % -3.87 C
1614 24-01-2019 14:25:00 -1.3 C 83 % -3.81 C
1615 24-01-2019 14:30:00 -1.3 C 82 % -3.97 C
1616 24-01-2019 14:35:00 -1.3 C 83 % -3.81 C
1617 24-01-2019 14:40:00 -1.2 C 83 % -3.71 C
1618 24-01-2019 14:45:00 -1.2 C 82 % -3.87 C
1619 24-01-2019 14:50:00 -1.2 C 81 % -4.04 C
1620 24-01-2019 14:55:00 -1.2 C 81 % -4.04 C
1621 24-01-2019 15:00:00 -1.2 C 81 % -4.04 C
1622 24-01-2019 15:05:00 -1.3 C 80 % -4.3 C
1623 24-01-2019 15:10:00 -1.3 C 80 % -4.3 C
1624 24-01-2019 15:15:00 -1.4 C 79 % -4.56 C
1625 24-01-2019 15:20:00 -1.4 C 80 % -4.4 C
Sensor: Nr:Datum:Temp:Feuchte:Taupunkt:
Aussen-T/F 1626 24-01-2019 15:25:00 -1.4 C 80 % -4.4 C
1627 24-01-2019 15:30:00 -1.4 C 80 % -4.4 C
1628 24-01-2019 15:35:00 -1.3 C 80 % -4.3 C
1629 24-01-2019 15:40:00 -1.3 C 80 % -4.3 C
1630 24-01-2019 15:45:00 -1.3 C 80 % -4.3 C
1631 24-01-2019 15:50:00 -1.3 C 80 % -4.3 C
1632 24-01-2019 15:55:00 -1.3 C 79 % -4.46 C
1633 24-01-2019 16:00:00 -1.3 C 79 % -4.46 C
1634 24-01-2019 16:05:00 -1.4 C 79 % -4.56 C
1635 24-01-2019 16:10:00 -1.4 C 80 % -4.4 C
1636 24-01-2019 16:15:00 -1.4 C 80 % -4.4 C
1637 24-01-2019 16:20:00 -1.4 C 80 % -4.4 C
1638 24-01-2019 16:25:00 -1.4 C 80 % -4.4 C
1639 24-01-2019 16:30:00 -1.4 C 81 % -4.23 C
1640 24-01-2019 16:35:00 -1.5 C 81 % -4.33 C
1641 24-01-2019 16:40:00 -1.6 C 81 % -4.43 C
1642 24-01-2019 16:45:00 -1.6 C 81 % -4.43 C
1643 24-01-2019 16:50:00 -1.6 C 82 % -4.26 C
1644 24-01-2019 16:55:00 -1.7 C 82 % -4.36 C
1645 24-01-2019 17:00:00 -1.7 C 83 % -4.2 C
1646 24-01-2019 17:05:00 -1.7 C 83 % -4.2 C
1647 24-01-2019 17:10:00 -1.7 C 83 % -4.2 C
1648 24-01-2019 17:15:00 -1.7 C 82 % -4.36 C
1649 24-01-2019 17:20:00 -1.7 C 83 % -4.2 C
1650 24-01-2019 17:25:00 -1.8 C 81 % -4.62 C
Sensor: Nr:Datum:Temp:Feuchte:Taupunkt:
Aussen-T/F 1651 24-01-2019 17:30:00 -1.8 C 81 % -4.62 C
1652 24-01-2019 17:35:00 -1.8 C 81 % -4.62 C
1653 24-01-2019 17:40:00 -1.8 C 80 % -4.79 C
1654 24-01-2019 17:45:00 -1.8 C 80 % -4.79 C
1655 24-01-2019 17:50:00 -1.8 C 80 % -4.79 C
1656 24-01-2019 17:55:00 -1.8 C 80 % -4.79 C
1657 24-01-2019 18:00:00 -1.9 C 80 % -4.88 C
1658 24-01-2019 18:05:00 -1.9 C 81 % -4.72 C
1659 24-01-2019 18:10:00 -1.9 C 80 % -4.88 C
1660 24-01-2019 18:15:00 -1.9 C 82 % -4.56 C
1661 24-01-2019 18:20:00 -1.9 C 81 % -4.72 C
1662 24-01-2019 18:25:00 -1.9 C 82 % -4.56 C
1663 24-01-2019 18:30:00 -1.9 C 82 % -4.56 C
1664 24-01-2019 18:35:00 -2 C 81 % -4.82 C
1665 24-01-2019 18:40:00 -2 C 80 % -4.98 C
1666 24-01-2019 18:45:00 -1.9 C 81 % -4.72 C
1667 24-01-2019 18:50:00 -1.9 C 81 % -4.72 C
1668 24-01-2019 18:55:00 -1.9 C 82 % -4.56 C
1669 24-01-2019 19:00:00 -2 C 81 % -4.82 C
1670 24-01-2019 19:05:00 -2 C 81 % -4.82 C
1671 24-01-2019 19:10:00 -2 C 81 % -4.82 C
1672 24-01-2019 19:15:00 -2 C 82 % -4.65 C
1673 24-01-2019 19:20:00 -2 C 83 % -4.49 C
1674 24-01-2019 19:25:00 -2.1 C 83 % -4.59 C
1675 24-01-2019 19:30:00 -2.1 C 83 % -4.59 C
Sensor: Nr:Datum:Temp:Feuchte:Taupunkt:
Aussen-T/F 1676 24-01-2019 19:35:00 -2.1 C 83 % -4.59 C
1677 24-01-2019 19:40:00 -2.1 C 84 % -4.43 C
1678 24-01-2019 19:45:00 -2.2 C 84 % -4.53 C
1679 24-01-2019 19:50:00 -2.2 C 84 % -4.53 C
1680 24-01-2019 19:55:00 -2.2 C 84 % -4.53 C
1681 24-01-2019 20:00:00 -2.3 C 84 % -4.63 C
1682 24-01-2019 20:05:00 -2.3 C 84 % -4.63 C
1683 24-01-2019 20:10:00 -2.3 C 84 % -4.63 C
1684 24-01-2019 20:15:00 -2.3 C 85 % -4.47 C
1685 24-01-2019 20:20:00 -2.3 C 85 % -4.47 C
1686 24-01-2019 20:25:00 -2.4 C 84 % -4.73 C
1687 24-01-2019 20:30:00 -2.5 C 84 % -4.83 C
1688 24-01-2019 20:35:00 -2.6 C 84 % -4.92 C
1689 24-01-2019 20:40:00 -2.7 C 84 % -5.02 C
1690 24-01-2019 20:45:00 -2.7 C 85 % -4.87 C
1691 24-01-2019 20:50:00 -2.7 C 85 % -4.87 C
1692 24-01-2019 20:55:00 -2.7 C 85 % -4.87 C
1693 24-01-2019 21:00:00 -2.7 C 86 % -4.71 C
1694 24-01-2019 21:05:00 -2.7 C 86 % -4.71 C
1695 24-01-2019 21:10:00 -2.7 C 86 % -4.71 C
1696 24-01-2019 21:15:00 -2.7 C 86 % -4.71 C
1697 24-01-2019 21:20:00 -2.6 C 87 % -4.46 C
1698 24-01-2019 21:25:00 -2.6 C 87 % -4.46 C
1699 24-01-2019 21:30:00 -2.6 C 86 % -4.61 C
1700 24-01-2019 21:35:00 -2.6 C 86 % -4.61 C
Sensor: Nr:Datum:Temp:Feuchte:Taupunkt:
Aussen-T/F 1701 24-01-2019 21:40:00 -2.6 C 86 % -4.61 C
1702 24-01-2019 21:45:00 -2.6 C 86 % -4.61 C
1703 24-01-2019 21:50:00 -2.6 C 86 % -4.61 C
1704 24-01-2019 21:55:00 -2.6 C 87 % -4.46 C
1705 24-01-2019 22:00:00 -2.6 C 86 % -4.61 C
1706 24-01-2019 22:05:00 -2.6 C 86 % -4.61 C
1707 24-01-2019 22:10:00 -2.6 C 86 % -4.61 C
1708 24-01-2019 22:15:00 -2.6 C 86 % -4.61 C
1709 24-01-2019 22:20:00 -2.6 C 86 % -4.61 C
1710 24-01-2019 22:25:00 -2.6 C 86 % -4.61 C
1711 24-01-2019 22:30:00 -2.5 C 86 % -4.51 C
1712 24-01-2019 22:35:00 -2.5 C 87 % -4.36 C
1713 24-01-2019 22:40:00 -2.5 C 87 % -4.36 C
1714 24-01-2019 22:45:00 -2.5 C 87 % -4.36 C
1715 24-01-2019 22:50:00 -2.4 C 87 % -4.26 C
1716 24-01-2019 22:55:00 -2.4 C 87 % -4.26 C
1717 24-01-2019 23:00:00 -2.4 C 87 % -4.26 C
1718 24-01-2019 23:05:00 -2.4 C 87 % -4.26 C
1719 24-01-2019 23:10:00 -2.4 C 87 % -4.26 C
1720 24-01-2019 23:15:00 -2.4 C 87 % -4.26 C
1721 24-01-2019 23:20:00 -2.4 C 87 % -4.26 C
1722 24-01-2019 23:25:00 -2.4 C 87 % -4.26 C
1723 24-01-2019 23:30:00 -2.4 C 87 % -4.26 C
1724 24-01-2019 23:35:00 -2.4 C 87 % -4.26 C
1725 24-01-2019 23:40:00 -2.4 C 88 % -4.11 C
Sensor: Nr:Datum:Temp:Feuchte:Taupunkt:
Aussen-T/F 1726 24-01-2019 23:45:00 -2.4 C 87 % -4.26 C
1727 24-01-2019 23:50:00 -2.4 C 87 % -4.26 C
1728 24-01-2019 23:55:00 -2.4 C 87 % -4.26 C
1729 25-01-2019 00:00:00 -2.4 C 87 % -4.26 C
1730 25-01-2019 00:05:00 -2.4 C 87 % -4.26 C
1731 25-01-2019 00:10:00 -2.4 C 87 % -4.26 C
1732 25-01-2019 00:15:00 -2.4 C 87 % -4.26 C
1733 25-01-2019 00:20:00 -2.4 C 87 % -4.26 C
1734 25-01-2019 00:25:00 -2.4 C 87 % -4.26 C
1735 25-01-2019 00:30:00 -2.4 C 87 % -4.26 C
1736 25-01-2019 00:35:00 -2.4 C 86 % -4.42 C
1737 25-01-2019 00:40:00 -2.4 C 86 % -4.42 C
1738 25-01-2019 00:45:00 -2.3 C 86 % -4.32 C
1739 25-01-2019 00:50:00 -2.3 C 86 % -4.32 C
1740 25-01-2019 00:55:00 -2.3 C 86 % -4.32 C
1741 25-01-2019 01:00:00 -2.3 C 86 % -4.32 C
1742 25-01-2019 01:05:00 -2.3 C 86 % -4.32 C
1743 25-01-2019 01:10:00 -2.2 C 86 % -4.22 C
1744 25-01-2019 01:15:00 -2.2 C 86 % -4.22 C
1745 25-01-2019 01:20:00 -2.2 C 86 % -4.22 C
1746 25-01-2019 01:25:00 -2.2 C 86 % -4.22 C
1747 25-01-2019 01:30:00 -2.1 C 86 % -4.12 C
1748 25-01-2019 01:35:00 -2.1 C 86 % -4.12 C
1749 25-01-2019 01:40:00 -2.1 C 86 % -4.12 C
1750 25-01-2019 01:45:00 -2 C 86 % -4.02 C
Sensor: Nr:Datum:Temp:Feuchte:Taupunkt:
Aussen-T/F 1751 25-01-2019 01:50:00 -2 C 86 % -4.02 C
1752 25-01-2019 01:55:00 -1.9 C 86 % -3.92 C
1753 25-01-2019 02:00:00 -1.9 C 86 % -3.92 C
1754 25-01-2019 02:05:00 -1.9 C 86 % -3.92 C
1755 25-01-2019 02:10:00 -1.9 C 86 % -3.92 C
1756 25-01-2019 02:15:00 -1.8 C 86 % -3.83 C
1757 25-01-2019 02:20:00 -1.8 C 87 % -3.67 C
1758 25-01-2019 02:25:00 -1.8 C 86 % -3.83 C
1759 25-01-2019 02:30:00 -1.8 C 87 % -3.67 C
1760 25-01-2019 02:35:00 -1.8 C 86 % -3.83 C
1761 25-01-2019 02:40:00 -1.8 C 87 % -3.67 C
1762 25-01-2019 02:45:00 -1.8 C 87 % -3.67 C
1763 25-01-2019 02:50:00 -1.7 C 87 % -3.57 C
1764 25-01-2019 02:55:00 -1.7 C 87 % -3.57 C
1765 25-01-2019 03:00:00 -1.7 C 87 % -3.57 C
1766 25-01-2019 03:05:00 -1.7 C 87 % -3.57 C
1767 25-01-2019 03:10:00 -1.7 C 87 % -3.57 C
1768 25-01-2019 03:15:00 -1.7 C 87 % -3.57 C
1769 25-01-2019 03:20:00 -1.7 C 88 % -3.42 C
1770 25-01-2019 03:25:00 -1.7 C 88 % -3.42 C
1771 25-01-2019 03:30:00 -1.7 C 88 % -3.42 C
1772 25-01-2019 03:35:00 -1.7 C 88 % -3.42 C
1773 25-01-2019 03:40:00 -1.7 C 88 % -3.42 C
1774 25-01-2019 03:45:00 -1.7 C 88 % -3.42 C
1775 25-01-2019 03:50:00 -1.7 C 88 % -3.42 C
Sensor: Nr:Datum:Temp:Feuchte:Taupunkt:
Aussen-T/F 1776 25-01-2019 03:55:00 -1.7 C 88 % -3.42 C
1777 25-01-2019 04:00:00 -1.6 C 88 % -3.32 C
1778 25-01-2019 04:05:00 -1.6 C 88 % -3.32 C
1779 25-01-2019 04:10:00 -1.6 C 88 % -3.32 C
1780 25-01-2019 04:15:00 -1.6 C 88 % -3.32 C
1781 25-01-2019 04:20:00 -1.6 C 88 % -3.32 C
1782 25-01-2019 04:25:00 -1.6 C 88 % -3.32 C
1783 25-01-2019 04:30:00 -1.6 C 88 % -3.32 C
1784 25-01-2019 04:35:00 -1.6 C 89 % -3.17 C
1785 25-01-2019 04:40:00 -1.5 C 89 % -3.07 C
1786 25-01-2019 04:45:00 -1.5 C 89 % -3.07 C
1787 25-01-2019 04:50:00 -1.5 C 89 % -3.07 C
1788 25-01-2019 04:55:00 -1.5 C 89 % -3.07 C
1789 25-01-2019 05:00:00 -1.4 C 89 % -2.97 C
1790 25-01-2019 05:05:00 -1.4 C 89 % -2.97 C
1791 25-01-2019 05:10:00 -1.4 C 89 % -2.97 C
1792 25-01-2019 05:15:00 -1.4 C 89 % -2.97 C
1793 25-01-2019 05:20:00 -1.4 C 89 % -2.97 C
1794 25-01-2019 05:25:00 -1.4 C 89 % -2.97 C
1795 25-01-2019 05:30:00 -1.4 C 89 % -2.97 C
1796 25-01-2019 05:35:00 -1.4 C 89 % -2.97 C
1797 25-01-2019 05:40:00 -1.4 C 89 % -2.97 C
1798 25-01-2019 05:45:00 -1.4 C 90 % -2.82 C
1799 25-01-2019 05:50:00 -1.4 C 90 % -2.82 C
1800 25-01-2019 05:55:00 -1.4 C 90 % -2.82 C
Sensor: Nr:Datum:Temp:Feuchte:Taupunkt:
Aussen-T/F 1801 25-01-2019 06:00:00 -1.3 C 90 % -2.73 C
1802 25-01-2019 06:05:00 -1.3 C 90 % -2.73 C
1803 25-01-2019 06:10:00 -1.3 C 90 % -2.73 C
1804 25-01-2019 06:15:00 -1.3 C 90 % -2.73 C
1805 25-01-2019 06:20:00 -1.3 C 90 % -2.73 C
1806 25-01-2019 06:25:00 -1.3 C 90 % -2.73 C
1807 25-01-2019 06:30:00 -1.3 C 90 % -2.73 C
1808 25-01-2019 06:35:00 -1.3 C 90 % -2.73 C
1809 25-01-2019 06:40:00 -1.3 C 90 % -2.73 C
1810 25-01-2019 06:45:00 -1.3 C 90 % -2.73 C
1811 25-01-2019 06:50:00 -1.3 C 90 % -2.73 C
1812 25-01-2019 06:55:00 -1.3 C 90 % -2.73 C
1813 25-01-2019 07:00:00 -1.3 C 90 % -2.73 C
1814 25-01-2019 07:05:00 -1.3 C 90 % -2.73 C
1815 25-01-2019 07:10:00 -1.3 C 90 % -2.73 C
1816 25-01-2019 07:15:00 -1.3 C 90 % -2.73 C
1817 25-01-2019 07:20:00 -1.3 C 90 % -2.73 C
1818 25-01-2019 07:25:00 -1.2 C 90 % -2.63 C
1819 25-01-2019 07:30:00 -1.2 C 90 % -2.63 C
1820 25-01-2019 07:35:00 -1.2 C 90 % -2.63 C
1821 25-01-2019 07:40:00 -1.2 C 90 % -2.63 C
1822 25-01-2019 07:45:00 -1.2 C 91 % -2.48 C
1823 25-01-2019 07:50:00 -1.2 C 91 % -2.48 C
1824 25-01-2019 07:55:00 -1.2 C 91 % -2.48 C
1825 25-01-2019 08:00:00 -1.2 C 91 % -2.48 C
Sensor: Nr:Datum:Temp:Feuchte:Taupunkt:
Aussen-T/F 1826 25-01-2019 08:05:00 -1.2 C 91 % -2.48 C
1827 25-01-2019 08:10:00 -1.2 C 91 % -2.48 C
1828 25-01-2019 08:15:00 -1.2 C 91 % -2.48 C
1829 25-01-2019 08:20:00 -1.2 C 91 % -2.48 C
1830 25-01-2019 08:25:00 -1.1 C 91 % -2.38 C
1831 25-01-2019 08:30:00 -1.1 C 91 % -2.38 C
1832 25-01-2019 08:35:00 -1.1 C 91 % -2.38 C
1833 25-01-2019 08:40:00 -1 C 91 % -2.28 C
1834 25-01-2019 08:45:00 -1 C 91 % -2.28 C
1835 25-01-2019 08:50:00 -1 C 91 % -2.28 C
1836 25-01-2019 08:55:00 -0.9 C 91 % -2.18 C
1837 25-01-2019 09:00:00 -0.9 C 91 % -2.18 C
1838 25-01-2019 09:05:00 -0.9 C 91 % -2.18 C
1839 25-01-2019 09:10:00 -0.9 C 91 % -2.18 C
1840 25-01-2019 09:15:00 -0.8 C 91 % -2.08 C
1841 25-01-2019 09:20:00 -0.8 C 91 % -2.08 C
1842 25-01-2019 09:25:00 -0.8 C 91 % -2.08 C
1843 25-01-2019 09:30:00 -0.8 C 91 % -2.08 C
1844 25-01-2019 09:35:00 -0.7 C 91 % -1.98 C
1845 25-01-2019 09:40:00 -0.7 C 91 % -1.98 C
1846 25-01-2019 09:45:00 -0.6 C 91 % -1.88 C
1847 25-01-2019 09:50:00 -0.6 C 91 % -1.88 C
1848 25-01-2019 09:55:00 -0.5 C 91 % -1.78 C
1849 25-01-2019 10:00:00 -0.5 C 91 % -1.78 C
1850 25-01-2019 10:05:00 -0.4 C 91 % -1.69 C
Sensor: Nr:Datum:Temp:Feuchte:Taupunkt:
Aussen-T/F 1851 25-01-2019 10:10:00 -0.4 C 91 % -1.69 C
1852 25-01-2019 10:15:00 -0.3 C 91 % -1.59 C
1853 25-01-2019 10:20:00 -0.3 C 91 % -1.59 C
1854 25-01-2019 10:25:00 -0.2 C 91 % -1.49 C
1855 25-01-2019 10:30:00 -0.2 C 91 % -1.49 C
1856 25-01-2019 10:35:00 -0.1 C 91 % -1.39 C
1857 25-01-2019 10:40:00 -0.1 C 91 % -1.39 C
1858 25-01-2019 10:45:00 0 C 92 % -1.14 C
1859 25-01-2019 10:50:00 0 C 91 % -1.29 C
1860 25-01-2019 10:55:00 0.1 C 91 % -1.19 C
1861 25-01-2019 11:00:00 0.1 C 91 % -1.19 C
1862 25-01-2019 11:05:00 0.2 C 91 % -1.09 C
1863 25-01-2019 11:10:00 0.3 C 91 % -0.99 C
1864 25-01-2019 11:15:00 0.4 C 91 % -0.89 C
1865 25-01-2019 11:20:00 0.4 C 90 % -1.04 C
1866 25-01-2019 11:25:00 0.5 C 90 % -0.95 C
1867 25-01-2019 11:30:00 0.7 C 90 % -0.75 C
1868 25-01-2019 11:35:00 0.8 C 90 % -0.65 C
1869 25-01-2019 11:40:00 0.9 C 90 % -0.55 C
1870 25-01-2019 11:45:00 1 C 89 % -0.6 C
1871 25-01-2019 11:50:00 1.1 C 89 % -0.51 C
1872 25-01-2019 11:55:00 1.2 C 88 % -0.56 C
1873 25-01-2019 12:00:00 1.2 C 88 % -0.56 C
1874 25-01-2019 12:05:00 1.2 C 88 % -0.56 C
1875 25-01-2019 12:10:00 1.3 C 88 % -0.46 C
Sensor: Nr:Datum:Temp:Feuchte:Taupunkt:
Aussen-T/F 1876 25-01-2019 12:15:00 1.4 C 88 % -0.36 C
1877 25-01-2019 12:20:00 1.5 C 87 % -0.42 C
1878 25-01-2019 12:25:00 1.6 C 87 % -0.32 C
1879 25-01-2019 12:30:00 1.7 C 86 % -0.38 C
1880 25-01-2019 12:35:00 1.7 C 86 % -0.38 C
1881 25-01-2019 12:40:00 1.8 C 86 % -0.29 C
1882 25-01-2019 12:45:00 1.9 C 86 % -0.19 C
1883 25-01-2019 12:50:00 2.1 C 85 % -0.15 C
1884 25-01-2019 12:55:00 2.2 C 84 % -0.22 C
1885 25-01-2019 13:00:00 2.3 C 84 % -0.12 C
1886 25-01-2019 13:05:00 2.3 C 83 % -0.28 C
1887 25-01-2019 13:10:00 2.4 C 82 % -0.35 C
1888 25-01-2019 13:15:00 2.5 C 81 % -0.42 C
1889 25-01-2019 13:20:00 2.6 C 81 % -0.32 C
1890 25-01-2019 13:25:00 2.6 C 80 % -0.49 C
1891 25-01-2019 13:30:00 2.6 C 81 % -0.32 C
1892 25-01-2019 13:35:00 2.6 C 80 % -0.49 C
1893 25-01-2019 13:40:00 2.4 C 81 % -0.52 C
1894 25-01-2019 13:45:00 2.4 C 81 % -0.52 C
1895 25-01-2019 13:50:00 2.4 C 81 % -0.52 C
1896 25-01-2019 13:55:00 2.4 C 80 % -0.69 C
1897 25-01-2019 14:00:00 2.3 C 80 % -0.79 C
1898 25-01-2019 14:05:00 2.3 C 81 % -0.62 C
1899 25-01-2019 14:10:00 2.3 C 81 % -0.62 C
1900 25-01-2019 14:15:00 2.3 C 81 % -0.62 C
Sensor: Nr:Datum:Temp:Feuchte:Taupunkt:
Aussen-T/F 1901 25-01-2019 14:20:00 2.3 C 81 % -0.62 C
1902 25-01-2019 14:25:00 2.2 C 81 % -0.71 C
1903 25-01-2019 14:30:00 2.2 C 81 % -0.71 C
1904 25-01-2019 14:35:00 2.2 C 81 % -0.71 C
1905 25-01-2019 14:40:00 2.2 C 81 % -0.71 C
1906 25-01-2019 14:45:00 2.2 C 82 % -0.55 C
1907 25-01-2019 14:50:00 2.2 C 81 % -0.71 C
1908 25-01-2019 14:55:00 2.2 C 81 % -0.71 C
1909 25-01-2019 15:00:00 2.2 C 82 % -0.55 C
1910 25-01-2019 15:05:00 2.2 C 82 % -0.55 C
1911 25-01-2019 15:10:00 2.2 C 82 % -0.55 C
1912 25-01-2019 15:15:00 2.1 C 82 % -0.64 C
1913 25-01-2019 15:20:00 2 C 82 % -0.74 C
1914 25-01-2019 15:25:00 1.9 C 83 % -0.67 C
1915 25-01-2019 15:30:00 1.9 C 83 % -0.67 C
1916 25-01-2019 15:35:00 1.9 C 83 % -0.67 C
1917 25-01-2019 15:40:00 1.8 C 83 % -0.77 C
1918 25-01-2019 15:45:00 1.8 C 83 % -0.77 C
1919 25-01-2019 15:50:00 1.8 C 83 % -0.77 C
1920 25-01-2019 15:55:00 1.8 C 84 % -0.61 C
1921 25-01-2019 16:00:00 1.8 C 84 % -0.61 C
1922 25-01-2019 16:05:00 1.8 C 84 % -0.61 C
1923 25-01-2019 16:10:00 1.8 C 84 % -0.61 C
1924 25-01-2019 16:15:00 1.8 C 85 % -0.45 C
1925 25-01-2019 16:20:00 1.7 C 85 % -0.54 C
Sensor: Nr:Datum:Temp:Feuchte:Taupunkt:
Aussen-T/F 1926 25-01-2019 16:25:00 1.7 C 85 % -0.54 C
1927 25-01-2019 16:30:00 1.7 C 85 % -0.54 C
1928 25-01-2019 16:35:00 1.7 C 86 % -0.38 C
1929 25-01-2019 16:40:00 1.7 C 86 % -0.38 C
1930 25-01-2019 16:45:00 1.6 C 86 % -0.48 C
1931 25-01-2019 16:50:00 1.7 C 86 % -0.38 C
1932 25-01-2019 16:55:00 1.7 C 86 % -0.38 C
1933 25-01-2019 17:00:00 1.7 C 86 % -0.38 C
1934 25-01-2019 17:05:00 1.7 C 87 % -0.23 C
1935 25-01-2019 17:10:00 1.7 C 87 % -0.23 C
1936 25-01-2019 17:15:00 1.7 C 87 % -0.23 C
1937 25-01-2019 17:20:00 1.7 C 87 % -0.23 C
1938 25-01-2019 17:25:00 1.7 C 87 % -0.23 C
1939 25-01-2019 17:30:00 1.7 C 87 % -0.23 C
1940 25-01-2019 17:35:00 1.7 C 87 % -0.23 C
1941 25-01-2019 17:40:00 1.7 C 87 % -0.23 C
1942 25-01-2019 17:45:00 1.7 C 87 % -0.23 C
1943 25-01-2019 17:50:00 1.7 C 87 % -0.23 C
1944 25-01-2019 17:55:00 1.7 C 87 % -0.23 C
1945 25-01-2019 18:00:00 1.7 C 87 % -0.23 C
1946 25-01-2019 18:05:00 1.7 C 87 % -0.23 C
1947 25-01-2019 18:10:00 1.7 C 87 % -0.23 C
1948 25-01-2019 18:15:00 1.7 C 87 % -0.23 C
1949 25-01-2019 18:20:00 1.8 C 87 % -0.13 C
1950 25-01-2019 18:25:00 1.8 C 87 % -0.13 C
Sensor: Nr:Datum:Temp:Feuchte:Taupunkt:
Aussen-T/F 1951 25-01-2019 18:30:00 1.8 C 87 % -0.13 C
1952 25-01-2019 18:35:00 1.8 C 87 % -0.13 C
1953 25-01-2019 18:40:00 1.8 C 87 % -0.13 C
1954 25-01-2019 18:45:00 1.8 C 87 % -0.13 C
1955 25-01-2019 18:50:00 1.8 C 87 % -0.13 C
1956 25-01-2019 18:55:00 1.8 C 87 % -0.13 C
1957 25-01-2019 19:00:00 1.8 C 87 % -0.13 C
1958 25-01-2019 19:05:00 1.8 C 88 % 0.03 C
1959 25-01-2019 19:10:00 1.7 C 88 % -0.07 C
1960 25-01-2019 19:15:00 1.7 C 89 % 0.09 C
1961 25-01-2019 19:20:00 1.6 C 89 % -0.01 C
1962 25-01-2019 19:25:00 1.6 C 90 % 0.14 C
1963 25-01-2019 19:30:00 1.4 C 90 % -0.06 C
1964 25-01-2019 19:35:00 1.4 C 91 % 0.1 C
1965 25-01-2019 19:40:00 1.3 C 91 % 0 C
1966 25-01-2019 19:45:00 1.3 C 91 % 0 C
1967 25-01-2019 19:50:00 1.3 C 91 % 0 C
1968 25-01-2019 19:55:00 1.3 C 92 % 0.15 C
1969 25-01-2019 20:00:00 1.4 C 92 % 0.25 C
1970 25-01-2019 20:05:00 1.4 C 92 % 0.25 C
1971 25-01-2019 20:10:00 1.4 C 91 % 0.1 C
1972 25-01-2019 20:15:00 1.4 C 91 % 0.1 C
1973 25-01-2019 20:20:00 1.5 C 91 % 0.19 C
1974 25-01-2019 20:25:00 1.6 C 91 % 0.29 C
1975 25-01-2019 20:30:00 1.6 C 91 % 0.29 C
Sensor: Nr:Datum:Temp:Feuchte:Taupunkt:
Aussen-T/F 1976 25-01-2019 20:35:00 1.6 C 91 % 0.29 C
1977 25-01-2019 20:40:00 1.6 C 91 % 0.29 C
1978 25-01-2019 20:45:00 1.5 C 91 % 0.19 C
1979 25-01-2019 20:50:00 1.5 C 91 % 0.19 C
1980 25-01-2019 20:55:00 1.5 C 91 % 0.19 C
1981 25-01-2019 21:00:00 1.6 C 91 % 0.29 C
1982 25-01-2019 21:05:00 1.6 C 91 % 0.29 C
1983 25-01-2019 21:10:00 1.6 C 91 % 0.29 C
1984 25-01-2019 21:15:00 1.6 C 91 % 0.29 C
1985 25-01-2019 21:20:00 1.7 C 91 % 0.39 C
1986 25-01-2019 21:25:00 1.7 C 91 % 0.39 C
1987 25-01-2019 21:30:00 1.7 C 91 % 0.39 C
1988 25-01-2019 21:35:00 1.7 C 91 % 0.39 C
1989 25-01-2019 21:40:00 1.7 C 91 % 0.39 C
1990 25-01-2019 21:45:00 1.7 C 91 % 0.39 C
1991 25-01-2019 21:50:00 1.7 C 91 % 0.39 C
1992 25-01-2019 21:55:00 1.7 C 91 % 0.39 C
1993 25-01-2019 22:00:00 1.7 C 91 % 0.39 C
1994 25-01-2019 22:05:00 1.7 C 91 % 0.39 C
1995 25-01-2019 22:10:00 1.8 C 91 % 0.49 C
1996 25-01-2019 22:15:00 1.8 C 91 % 0.49 C
1997 25-01-2019 22:20:00 1.8 C 91 % 0.49 C
1998 25-01-2019 22:25:00 1.8 C 91 % 0.49 C
1999 25-01-2019 22:30:00 1.8 C 92 % 0.64 C
2000 25-01-2019 22:35:00 1.8 C 92 % 0.64 C
Sensor: Nr:Datum:Temp:Feuchte:Taupunkt:
Aussen-T/F 2001 25-01-2019 22:40:00 1.8 C 92 % 0.64 C
2002 25-01-2019 22:45:00 1.8 C 92 % 0.64 C
2003 25-01-2019 22:50:00 1.8 C 92 % 0.64 C
2004 25-01-2019 22:55:00 1.8 C 93 % 0.79 C
2005 25-01-2019 23:00:00 1.8 C 93 % 0.79 C
2006 25-01-2019 23:05:00 1.8 C 93 % 0.79 C
2007 25-01-2019 23:10:00 1.8 C 93 % 0.79 C
2008 25-01-2019 23:15:00 1.8 C 93 % 0.79 C
2009 25-01-2019 23:20:00 1.8 C 93 % 0.79 C
2010 25-01-2019 23:25:00 1.8 C 93 % 0.79 C
2011 25-01-2019 23:30:00 1.8 C 93 % 0.79 C
2012 25-01-2019 23:35:00 1.8 C 94 % 0.94 C
2013 25-01-2019 23:40:00 1.8 C 94 % 0.94 C
2014 25-01-2019 23:45:00 1.8 C 94 % 0.94 C
2015 25-01-2019 23:50:00 1.8 C 94 % 0.94 C
2016 25-01-2019 23:55:00 1.8 C 94 % 0.94 C

Legende:
   Min
   Max


Maximal/Minimal-Werte vom 19.01.2019 - 25.01.2019

Sensor Min Max Avg
Temp
(Aussen-T/F)
-8.8 °C
22-01-2019  06:35:00
2.6 °C
25-01-2019  13:20:00
-3.15 °C
Feuchte
(Aussen-T/F)
79 %
24-01-2019  15:15:00
96 %
19-01-2019  10:20:00
90.51 %
Taupunkt
(Aussen-T/F)
-9.72 C
22-01-2019  06:35:00
0.94 C
25-01-2019  23:35:00
-4.5 C

Die Daten stammen von einer Davis Vantage Pro 2 Wetter-Station und werden unter Linux mit der Software wview2wettercgi und aufbereitet. Alle Angaben erfolgen ohne Gewähr für ihre Vollständigkeit oder Richtigkeit.
Kontakt: Rainer Krienke krienke@uni-koblenz.de . Meine Webseiten an der Uni Koblenz oder privat.
Version: $Revision: 0.78 $